BAW11 EGLL-WSSS

Flight info

Callsign BAW11
Flight time 12h 17m
Altitude 31000
Route DET L6 DVR L9 KONAN UL607 FERDI DCT MATUG DCT GUBAX DCT KOMIB L984 SULUS Z650 VEMUT DCT DITIS DCT ERGOM DCT BUDOP DCT UDROS/N0488F330 UM859 KARDE UL851 TBN UR317 REBLO M11 LUSAL N199 BAKUV N701 LARGI B701 KRS A240 INRAK B449 DOLOS B475 RUBAD A846 RANAH/N0492F350 L750 ZB G202 RK P628 IBANI L510 LEGIN/N0495F370 L510 GIVAL P628 VPL Y503 RINBA Y507 MAKNA Y511 TOPOR A464 ARAMA DCT TEBUN TEBUN1A
Aircraft B77W/H-SDE1E2E3FGHIJ2J3J4J5M1RWXY/LB1D1

Departure

Time 2026-05-06 21:05
Airport London Heathrow Airport (EGLL)

Arrival

Time 2026-05-07 09:22
Airport Singapore Changi Airport (WSSS)
Time Latitude Longitude Altitude Speed Heading
2026-05-06 20:40 51.47220 -0.47728 91 ft 0 kts 89°
2026-05-06 20:53 51.47220 -0.47745 95 ft 4 kts 92°
2026-05-06 20:54 51.47223 -0.47788 93 ft 4 kts 102°
2026-05-06 20:54 51.47228 -0.47816 91 ft 4 kts 111°
2026-05-06 20:54 51.47246 -0.47861 92 ft 4 kts 149°
2026-05-06 20:54 51.47261 -0.47870 92 ft 0 kts 181°
2026-05-06 20:59 51.47241 -0.47870 79 ft 7 kts 179°
2026-05-06 20:59 51.47178 -0.47870 91 ft 10 kts 180°
2026-05-06 21:00 51.47108 -0.47870 91 ft 10 kts 179°
2026-05-06 21:00 51.47038 -0.47870 91 ft 10 kts 181°
2026-05-06 21:00 51.46968 -0.47870 91 ft 10 kts 176°
2026-05-06 21:00 51.46898 -0.47867 93 ft 10 kts 180°
2026-05-06 21:01 51.46828 -0.47866 94 ft 10 kts 180°
2026-05-06 21:01 51.46762 -0.47888 95 ft 10 kts 223°
2026-05-06 21:01 51.46743 -0.47994 92 ft 10 kts 269°
2026-05-06 21:01 51.46743 -0.48102 93 ft 10 kts 271°
2026-05-06 21:02 51.46744 -0.48215 93 ft 10 kts 268°
2026-05-06 21:02 51.46743 -0.48346 91 ft 12 kts 270°
2026-05-06 21:02 51.46741 -0.48494 91 ft 14 kts 269°
2026-05-06 21:02 51.46741 -0.48647 91 ft 14 kts 267°
2026-05-06 21:03 51.46681 -0.48744 95 ft 14 kts 191°
2026-05-06 21:03 51.46588 -0.48776 93 ft 14 kts 189°
2026-05-06 21:03 51.46499 -0.48747 93 ft 14 kts 132°
2026-05-06 21:03 51.46479 -0.48598 93 ft 14 kts 90°
2026-05-06 21:04 51.46477 -0.48426 94 ft 25 kts 89°
2026-05-06 21:04 51.46482 -0.47708 93 ft 105 kts 90°
2026-05-06 21:04 51.46487 -0.46130 94 ft 177 kts 89°
2026-05-06 21:04 51.46507 -0.43939 237 ft 214 kts 89°
2026-05-06 21:05 51.46482 -0.41601 834 ft 221 kts 89°
2026-05-06 21:05 51.46469 -0.39189 1902 ft 210 kts 87°
2026-05-06 21:05 51.46472 -0.37694 2641 ft 200 kts 88°
2026-05-06 21:05 51.46437 -0.35933 2802 ft 225 kts 91°
2026-05-06 21:06 51.46234 -0.34061 3111 ft 233 kts 108°
2026-05-06 21:06 51.45621 -0.31904 3419 ft 243 kts 114°
2026-05-06 21:06 51.44989 -0.29689 3869 ft 249 kts 113°
2026-05-06 21:06 51.44426 -0.27663 4260 ft 256 kts 113°
2026-05-06 21:07 51.43681 -0.24982 4748 ft 268 kts 112°
2026-05-06 21:07 51.42929 -0.22294 5318 ft 274 kts 113°
2026-05-06 21:07 51.42191 -0.19666 5903 ft 276 kts 113°
2026-05-06 21:07 51.41419 -0.16919 5965 ft 278 kts 113°
2026-05-06 21:08 51.40757 -0.14295 5978 ft 275 kts 104°
2026-05-06 21:08 51.40340 -0.11518 5997 ft 277 kts 100°
2026-05-06 21:08 51.39966 -0.08477 6073 ft 279 kts 100°
2026-05-06 21:08 51.39590 -0.05457 6802 ft 277 kts 101°
2026-05-06 21:09 51.39197 -0.02437 7490 ft 278 kts 101°
2026-05-06 21:09 51.38785 0.00616 8087 ft 281 kts 102°
2026-05-06 21:09 51.38359 0.03692 8695 ft 285 kts 102°
2026-05-06 21:09 51.37923 0.06823 9293 ft 289 kts 101°
2026-05-06 21:10 51.37480 0.09989 9885 ft 293 kts 102°
2026-05-06 21:10 51.37121 0.12553 10317 ft 296 kts 102°
2026-05-06 21:10 51.36670 0.15756 10870 ft 298 kts 102°
2026-05-06 21:10 51.36202 0.19086 11124 ft 316 kts 102°
2026-05-06 21:11 51.35704 0.22621 11290 ft 335 kts 102°
2026-05-06 21:11 51.35189 0.26262 11468 ft 354 kts 102°
2026-05-06 21:11 51.34629 0.30216 11662 ft 373 kts 102°
2026-05-06 21:11 51.34044 0.34324 12151 ft 383 kts 102°
2026-05-06 21:12 51.33446 0.38528 12780 ft 390 kts 102°
2026-05-06 21:12 51.32840 0.42769 13513 ft 393 kts 102°
2026-05-06 21:12 51.32228 0.47038 14199 ft 396 kts 102°
2026-05-06 21:12 51.31608 0.51349 14846 ft 400 kts 102°
2026-05-06 21:13 51.30985 0.55657 15468 ft 404 kts 103°
2026-05-06 21:13 51.30341 0.60063 16098 ft 408 kts 104°
2026-05-06 21:13 51.29604 0.64467 16726 ft 412 kts 105°
2026-05-06 21:13 51.28793 0.68900 17355 ft 416 kts 106°
2026-05-06 21:14 51.27958 0.73352 17974 ft 421 kts 107°
2026-05-06 21:14 51.27112 0.77855 18556 ft 425 kts 107°
2026-05-06 21:14 51.26264 0.82400 19102 ft 428 kts 107°
2026-05-06 21:14 51.25426 0.86920 19652 ft 431 kts 107°
2026-05-06 21:15 51.24574 0.91527 20193 ft 434 kts 107°
2026-05-06 21:15 51.23717 0.96166 20725 ft 438 kts 107°
2026-05-06 21:15 51.22918 1.00487 21223 ft 441 kts 107°
2026-05-06 21:15 51.22046 1.05195 21750 ft 444 kts 107°
2026-05-06 21:16 51.21165 1.09937 22254 ft 447 kts 107°
2026-05-06 21:16 51.20269 1.14741 22764 ft 451 kts 107°
2026-05-06 21:16 51.19372 1.19544 23264 ft 454 kts 107°
2026-05-06 21:16 51.18476 1.24333 23724 ft 457 kts 107°
2026-05-06 21:17 51.17560 1.29209 24128 ft 460 kts 107°
2026-05-06 21:17 51.16686 1.34133 24540 ft 463 kts 104°
2026-05-06 21:17 51.16081 1.39184 24946 ft 466 kts 97°
2026-05-06 21:17 51.15801 1.44334 25362 ft 468 kts 94°
2026-05-06 21:18 51.15583 1.49511 25754 ft 470 kts 94°
2026-05-06 21:18 51.15360 1.54732 26122 ft 473 kts 94°
2026-05-06 21:18 51.15125 1.59973 26499 ft 475 kts 94°
2026-05-06 21:18 51.14874 1.65251 26875 ft 478 kts 95°
2026-05-06 21:19 51.14616 1.70477 27240 ft 480 kts 95°
2026-05-06 21:19 51.14349 1.75786 27594 ft 482 kts 95°
2026-05-06 21:19 51.14077 1.81121 27932 ft 485 kts 95°
2026-05-06 21:19 51.13801 1.86493 28266 ft 487 kts 95°
2026-05-06 21:20 51.13523 1.91890 28613 ft 489 kts 95°
2026-05-06 21:20 51.13242 1.97299 28915 ft 491 kts 95°
2026-05-06 21:20 51.12968 2.02504 29199 ft 493 kts 95°
2026-05-06 21:20 51.12678 2.07970 29471 ft 495 kts 95°
2026-05-06 21:21 51.12385 2.13443 29723 ft 497 kts 95°
2026-05-06 21:21 51.12092 2.18873 29967 ft 499 kts 95°
2026-05-06 21:21 51.11792 2.24394 30189 ft 501 kts 95°
2026-05-06 21:21 51.11490 2.29924 30442 ft 501 kts 95°
2026-05-06 21:22 51.11186 2.35439 30776 ft 499 kts 95°
2026-05-06 21:22 51.10880 2.40942 30949 ft 501 kts 95°
2026-05-06 21:22 51.10570 2.46474 30974 ft 501 kts 95°
2026-05-06 21:23 51.09947 2.57461 30974 ft 496 kts 95°
2026-05-06 21:23 51.09010 2.68321 30975 ft 495 kts 104°
2026-05-06 21:24 51.07105 2.78850 30983 ft 495 kts 107°
2026-05-06 21:24 51.05143 2.89294 30996 ft 496 kts 107°
2026-05-06 21:25 51.03198 2.99828 30989 ft 496 kts 107°
2026-05-06 21:25 51.01306 3.10131 30980 ft 496 kts 107°
2026-05-06 21:26 50.99363 3.20665 30974 ft 496 kts 107°
2026-05-06 21:26 50.97426 3.31097 30965 ft 496 kts 107°
2026-05-06 21:27 50.95467 3.41577 30960 ft 495 kts 107°
2026-05-06 21:27 50.93503 3.52035 30959 ft 494 kts 107°
2026-05-06 21:28 50.91536 3.62454 30962 ft 493 kts 107°
2026-05-06 21:28 50.89681 3.72840 30968 ft 492 kts 105°
2026-05-06 21:29 50.87936 3.83333 30967 ft 492 kts 105°
2026-05-06 21:29 50.86183 3.93816 30964 ft 492 kts 105°
2026-05-06 21:30 50.84466 4.03896 30970 ft 492 kts 105°
2026-05-06 21:30 50.82666 4.14332 30969 ft 492 kts 105°
2026-05-06 21:31 50.80853 4.24770 30968 ft 492 kts 106°
2026-05-06 21:31 50.79093 4.34854 30961 ft 492 kts 106°
2026-05-06 21:32 50.77267 4.45263 30968 ft 491 kts 106°
2026-05-06 21:32 50.74514 4.60842 30960 ft 490 kts 106°
2026-05-06 21:33 50.72669 4.71208 30949 ft 490 kts 106°
2026-05-06 21:33 50.70813 4.81569 30953 ft 491 kts 106°
2026-05-06 21:34 50.68960 4.91857 30952 ft 491 kts 107°
2026-05-06 21:34 50.67123 5.02004 30952 ft 492 kts 107°
2026-05-06 21:35 50.65233 5.12382 30946 ft 492 kts 107°
2026-05-06 21:35 50.63333 5.22758 30942 ft 492 kts 107°
2026-05-06 21:36 50.61427 5.33104 30947 ft 491 kts 107°
2026-05-06 21:36 50.59511 5.43451 30943 ft 491 kts 107°
2026-05-06 21:37 50.57603 5.53694 30942 ft 490 kts 107°
2026-05-06 21:37 50.55673 5.63999 30943 ft 490 kts 107°
2026-05-06 21:38 50.53737 5.74280 30938 ft 490 kts 107°
2026-05-06 21:38 50.51795 5.84536 30932 ft 489 kts 107°
2026-05-06 21:39 50.49845 5.94783 30922 ft 489 kts 107°
2026-05-06 21:39 50.47935 6.04761 30916 ft 489 kts 108°
2026-05-06 21:40 50.45965 6.15007 30908 ft 489 kts 108°
2026-05-06 21:40 50.43987 6.25242 30905 ft 490 kts 108°
2026-05-06 21:41 50.42033 6.35479 30892 ft 490 kts 105°
2026-05-06 21:41 50.40911 6.46021 30916 ft 491 kts 97°
2026-05-06 21:42 50.40157 6.56588 30884 ft 491 kts 98°
2026-05-06 21:42 50.39365 6.67221 30887 ft 490 kts 98°
2026-05-06 21:43 50.38537 6.77826 30897 ft 490 kts 98°
2026-05-06 21:43 50.37829 6.86695 30886 ft 490 kts 98°
2026-05-06 21:44 50.36980 6.97229 30897 ft 489 kts 98°
2026-05-06 21:44 50.36132 7.07651 30878 ft 488 kts 99°
2026-05-06 21:45 50.35266 7.18166 30897 ft 486 kts 99°
2026-05-06 21:45 50.34393 7.28670 30876 ft 485 kts 99°
2026-05-06 21:46 50.33519 7.39068 30888 ft 484 kts 99°
2026-05-06 21:46 50.32630 7.49511 30889 ft 483 kts 99°
2026-05-06 21:47 50.31734 7.59927 30878 ft 483 kts 99°
2026-05-06 21:47 50.30830 7.70338 30884 ft 482 kts 99°
2026-05-06 21:48 50.29919 7.80730 30875 ft 482 kts 99°
2026-05-06 21:48 50.28997 7.91129 30868 ft 482 kts 99°
2026-05-06 21:49 50.28131 8.01252 30875 ft 483 kts 99°
2026-05-06 21:49 50.27266 8.11657 30876 ft 483 kts 99°
2026-05-06 21:50 50.26401 8.21930 30876 ft 483 kts 99°
2026-05-06 21:50 50.25510 8.32349 30869 ft 483 kts 99°
2026-05-06 21:51 50.24624 8.42558 30869 ft 482 kts 99°
2026-05-06 21:51 50.23716 8.52920 30870 ft 480 kts 99°
2026-05-06 21:52 50.22802 8.63230 30870 ft 479 kts 100°
2026-05-06 21:52 50.21880 8.73522 30869 ft 478 kts 100°
2026-05-06 21:53 50.20956 8.83737 30867 ft 478 kts 100°
2026-05-06 21:53 50.20017 8.94017 30865 ft 478 kts 100°
2026-05-06 21:54 50.19086 9.04108 30858 ft 479 kts 100°
2026-05-06 21:54 50.18150 9.14151 30855 ft 479 kts 100°
2026-05-06 21:55 50.17185 9.24429 30848 ft 479 kts 101°
2026-05-06 21:55 50.16222 9.34571 30854 ft 478 kts 101°
2026-05-06 21:56 50.15229 9.44904 30844 ft 478 kts 101°
2026-05-06 21:56 50.14236 9.55160 30852 ft 478 kts 101°
2026-05-06 21:57 50.13235 9.65404 30831 ft 477 kts 102°
2026-05-06 21:57 50.12226 9.75644 30838 ft 477 kts 103°
2026-05-06 21:58 50.11214 9.85798 30839 ft 477 kts 103°
2026-05-06 21:58 50.10185 9.96036 30834 ft 477 kts 103°
2026-05-06 21:59 50.09167 10.06098 30836 ft 478 kts 103°
2026-05-06 21:59 50.08121 10.16335 30824 ft 478 kts 103°
2026-05-06 22:00 50.07267 10.26550 30830 ft 482 kts 97°
2026-05-06 22:00 50.07310 10.37027 30837 ft 485 kts 94°
2026-05-06 22:01 50.07415 10.47535 30835 ft 485 kts 94°
2026-05-06 22:01 50.07463 10.58025 30809 ft 484 kts 95°
2026-05-06 22:02 50.07412 10.68503 30830 ft 481 kts 99°
2026-05-06 22:02 50.06327 10.78681 30839 ft 473 kts 110°
2026-05-06 22:03 50.04314 10.88322 30845 ft 471 kts 113°
2026-05-06 22:03 50.02224 10.97996 30839 ft 472 kts 113°
2026-05-06 22:04 50.00204 11.07506 30838 ft 472 kts 113°
2026-05-06 22:04 49.98157 11.17166 30840 ft 474 kts 113°
2026-05-06 22:05 49.96077 11.26911 30849 ft 475 kts 113°
2026-05-06 22:05 49.93990 11.36655 30844 ft 476 kts 113°
2026-05-06 22:06 49.91978 11.46451 30822 ft 478 kts 111°
2026-05-06 22:06 49.90238 11.56433 30840 ft 479 kts 110°
2026-05-06 22:07 49.88460 11.66320 30849 ft 480 kts 109°
2026-05-06 22:07 49.87332 11.76611 30852 ft 486 kts 102°
2026-05-06 22:08 49.86486 11.87018 30806 ft 486 kts 102°
2026-05-06 22:08 49.85576 11.97396 30834 ft 486 kts 103°
2026-05-06 22:09 49.84640 12.07622 30833 ft 485 kts 103°
2026-05-06 22:09 49.83687 12.17910 30832 ft 485 kts 103°
2026-05-06 22:10 49.82727 12.28255 30835 ft 484 kts 103°
2026-05-06 22:10 49.81786 12.38591 30835 ft 484 kts 104°
2026-05-06 22:11 49.80106 12.48599 30845 ft 477 kts 115°
2026-05-06 22:11 49.77349 12.57803 30844 ft 474 kts 122°
2026-05-06 22:12 49.74319 12.66849 30839 ft 475 kts 122°
2026-05-06 22:12 49.71287 12.75944 30817 ft 476 kts 121°
2026-05-06 22:13 49.68264 12.85058 30839 ft 477 kts 121°
2026-05-06 22:13 49.65240 12.94179 30843 ft 477 kts 121°
2026-05-06 22:14 49.62278 13.03079 30838 ft 477 kts 121°
2026-05-06 22:14 49.59248 13.12148 30838 ft 477 kts 121°
2026-05-06 22:15 49.56198 13.21242 30857 ft 476 kts 121°
2026-05-06 22:15 49.53261 13.29963 30856 ft 476 kts 121°
2026-05-06 22:16 49.50322 13.38665 30853 ft 475 kts 121°
2026-05-06 22:16 49.47418 13.47231 30852 ft 475 kts 121°
2026-05-06 22:17 49.44461 13.55924 30808 ft 478 kts 122°
2026-05-06 22:17 49.41329 13.65094 30844 ft 487 kts 122°
2026-05-06 22:18 49.38332 13.73846 30838 ft 487 kts 122°
2026-05-06 22:18 49.35289 13.82710 30822 ft 486 kts 122°
2026-05-06 22:19 49.32273 13.91459 30813 ft 486 kts 122°
2026-05-06 22:19 49.29214 14.00299 30835 ft 488 kts 122°
2026-05-06 22:20 49.26148 14.09123 30844 ft 491 kts 122°
2026-05-06 22:20 49.22925 14.18374 30835 ft 494 kts 122°
2026-05-06 22:21 49.19894 14.27042 30832 ft 495 kts 122°
2026-05-06 22:21 49.16733 14.36057 30810 ft 496 kts 123°
2026-05-06 22:22 49.13482 14.45291 30821 ft 497 kts 123°
2026-05-06 22:22 49.10478 14.53790 30808 ft 499 kts 123°
2026-05-06 22:23 49.07173 14.63115 30808 ft 499 kts 123°
2026-05-06 22:23 49.03932 14.72232 30791 ft 499 kts 124°
2026-05-06 22:24 49.00676 14.81350 30801 ft 501 kts 124°
2026-05-06 22:24 48.97384 14.90539 30818 ft 502 kts 124°
2026-05-06 22:25 48.94122 14.99616 30817 ft 504 kts 124°
2026-05-06 22:25 48.90853 15.08683 30781 ft 505 kts 125°
2026-05-06 22:26 48.87807 15.18353 30808 ft 511 kts 119°
2026-05-06 22:26 48.85057 15.28287 30800 ft 512 kts 118°
2026-05-06 22:27 48.82293 15.38240 30800 ft 512 kts 119°
2026-05-06 22:27 48.79493 15.48174 30761 ft 512 kts 119°
2026-05-06 22:28 48.76697 15.58003 30785 ft 512 kts 119°
2026-05-06 22:28 48.73869 15.67893 30792 ft 511 kts 119°
2026-05-06 22:29 48.71040 15.77753 30788 ft 511 kts 119°
2026-05-06 22:29 48.68185 15.87668 30756 ft 511 kts 119°
2026-05-06 22:30 48.65351 15.97474 30787 ft 512 kts 119°
2026-05-06 22:30 48.62534 16.07178 30791 ft 512 kts 119°
2026-05-06 22:31 48.59693 16.16922 30794 ft 513 kts 119°
2026-05-06 22:31 48.57256 16.25252 30758 ft 514 kts 118°
2026-05-06 22:32 48.54359 16.35119 30790 ft 513 kts 118°
2026-05-06 22:32 48.51471 16.44915 30812 ft 514 kts 119°
2026-05-06 22:33 48.48559 16.54753 30793 ft 514 kts 119°
2026-05-06 22:33 48.45637 16.64584 30800 ft 513 kts 118°
2026-05-06 22:34 48.42719 16.74364 30799 ft 511 kts 118°
2026-05-06 22:34 48.39799 16.84113 30806 ft 509 kts 118°
2026-05-06 22:35 48.36894 16.93771 30807 ft 508 kts 118°
2026-05-06 22:35 48.34012 17.03315 30811 ft 507 kts 119°
2026-05-06 22:36 48.31081 17.12982 30819 ft 508 kts 119°
2026-05-06 22:36 48.28138 17.22652 30823 ft 508 kts 119°
2026-05-06 22:37 48.25210 17.32236 30833 ft 508 kts 119°
2026-05-06 22:37 48.22256 17.41867 30822 ft 508 kts 119°
2026-05-06 22:38 48.19295 17.51487 30827 ft 508 kts 119°
2026-05-06 22:38 48.16325 17.61096 30838 ft 507 kts 119°
2026-05-06 22:39 48.13352 17.70680 30838 ft 507 kts 119°
2026-05-06 22:39 48.10378 17.80228 30834 ft 508 kts 119°
2026-05-06 22:40 48.07380 17.89816 30854 ft 508 kts 119°
2026-05-06 22:40 48.04438 17.99193 30859 ft 509 kts 119°
2026-05-06 22:41 47.99949 18.13429 30840 ft 510 kts 119°
2026-05-06 22:42 47.96919 18.22996 30866 ft 509 kts 119°
2026-05-06 22:42 47.93917 18.32438 30877 ft 509 kts 119°
2026-05-06 22:43 47.90862 18.42011 30879 ft 509 kts 119°
2026-05-06 22:43 47.87812 18.51532 30864 ft 508 kts 119°
2026-05-06 22:44 47.84752 18.61054 30889 ft 508 kts 119°
2026-05-06 22:44 47.81761 18.70327 30902 ft 507 kts 119°
2026-05-06 22:45 47.78412 18.79687 30902 ft 504 kts 123°
2026-05-06 22:45 47.74893 18.88693 30892 ft 503 kts 123°
2026-05-06 22:46 47.71401 18.97603 30896 ft 503 kts 123°
2026-05-06 22:46 47.67921 19.06519 30917 ft 504 kts 123°
2026-05-06 22:47 47.64434 19.15453 30928 ft 504 kts 123°
2026-05-06 22:47 47.60972 19.24301 30921 ft 504 kts 123°
2026-05-06 22:48 47.57442 19.33291 30929 ft 504 kts 123°
2026-05-06 22:48 47.54077 19.41827 30939 ft 504 kts 123°
2026-05-06 22:49 47.50535 19.50783 30929 ft 504 kts 123°
2026-05-06 22:49 47.47050 19.59567 30937 ft 502 kts 123°
2026-05-06 22:50 47.43617 19.68192 30917 ft 501 kts 123°
2026-05-06 22:50 47.40083 19.77042 30916 ft 499 kts 123°
2026-05-06 22:51 47.36544 19.85877 30930 ft 498 kts 123°
2026-05-06 22:51 47.33052 19.94562 30925 ft 498 kts 123°
2026-05-06 22:52 47.29630 20.03049 30928 ft 499 kts 123°
2026-05-06 22:52 47.26072 20.11847 30937 ft 500 kts 123°
2026-05-06 22:53 47.22500 20.20648 30942 ft 501 kts 123°
2026-05-06 22:53 47.18935 20.29407 30934 ft 502 kts 123°
2026-05-06 22:54 47.15342 20.38204 30942 ft 502 kts 123°
2026-05-06 22:54 47.11735 20.47007 30934 ft 502 kts 123°
2026-05-06 22:55 47.08123 20.55795 30920 ft 502 kts 123°
2026-05-06 22:55 47.04508 20.64562 30919 ft 502 kts 123°
2026-05-06 22:56 47.00887 20.73316 30924 ft 502 kts 123°
2026-05-06 22:56 46.97282 20.82002 30926 ft 501 kts 123°
2026-05-06 22:57 46.93652 20.90721 30918 ft 501 kts 124°
2026-05-06 22:57 46.90020 20.99419 30926 ft 500 kts 124°
2026-05-06 22:58 46.86439 21.07965 30929 ft 500 kts 124°
2026-05-06 22:58 46.82803 21.16618 30932 ft 500 kts 124°
2026-05-06 22:59 46.79184 21.25204 30922 ft 499 kts 124°
2026-05-06 22:59 46.75534 21.33835 30931 ft 499 kts 124°
2026-05-06 23:00 46.71880 21.42455 30934 ft 499 kts 124°
2026-05-06 23:00 46.68251 21.51091 30940 ft 500 kts 121°
2026-05-06 23:01 46.64941 21.60001 30943 ft 500 kts 120°
2026-05-06 23:01 46.61692 21.68898 30942 ft 501 kts 120°
2026-05-06 23:02 46.58409 21.77829 30945 ft 500 kts 120°
2026-05-06 23:02 46.55106 21.86735 30956 ft 500 kts 120°
2026-05-06 23:03 46.51784 21.95643 30949 ft 501 kts 120°
2026-05-06 23:03 46.48528 22.04345 30964 ft 502 kts 120°
2026-05-06 23:04 46.45177 22.13275 30974 ft 504 kts 120°
2026-05-06 23:04 46.41839 22.22143 30973 ft 504 kts 121°
2026-05-06 23:05 46.38470 22.31065 30982 ft 505 kts 120°
2026-05-06 23:05 46.35088 22.39990 30999 ft 506 kts 121°
2026-05-06 23:06 46.31689 22.48932 30991 ft 506 kts 121°
2026-05-06 23:06 46.28310 22.57792 30988 ft 506 kts 120°
2026-05-06 23:07 46.24902 22.66698 31020 ft 506 kts 120°
2026-05-06 23:07 46.21488 22.75590 31028 ft 506 kts 121°
2026-05-06 23:08 46.18059 22.84495 31017 ft 506 kts 121°
2026-05-06 23:08 46.14628 22.93372 31006 ft 507 kts 120°
2026-05-06 23:09 46.11229 23.02141 31025 ft 507 kts 120°
2026-05-06 23:09 46.07776 23.11018 31024 ft 507 kts 120°
2026-05-06 23:10 46.04339 23.19829 31022 ft 508 kts 121°
2026-05-06 23:10 46.00871 23.28690 31014 ft 508 kts 120°
2026-05-06 23:11 45.97467 23.37358 31024 ft 509 kts 121°
2026-05-06 23:11 45.93975 23.46222 31023 ft 509 kts 121°
2026-05-06 23:12 45.90478 23.55070 31022 ft 510 kts 120°
2026-05-06 23:12 45.86966 23.63928 31028 ft 510 kts 121°
2026-05-06 23:13 45.83445 23.72780 31033 ft 511 kts 121°
2026-05-06 23:13 45.79937 23.81573 31027 ft 511 kts 121°
2026-05-06 23:14 45.76397 23.90416 31020 ft 512 kts 121°
2026-05-06 23:14 45.72844 23.99264 31023 ft 511 kts 121°
2026-05-06 23:15 45.69349 24.07940 31047 ft 511 kts 121°
2026-05-06 23:15 45.65792 24.16741 31049 ft 511 kts 121°
2026-05-06 23:16 45.62228 24.25533 31054 ft 510 kts 121°
2026-05-06 23:16 45.58681 24.34254 31061 ft 510 kts 121°
2026-05-06 23:17 45.55105 24.43019 31066 ft 511 kts 121°
2026-05-06 23:17 45.51518 24.51783 31051 ft 511 kts 121°
2026-05-06 23:18 45.47927 24.60533 31078 ft 511 kts 121°
2026-05-06 23:18 45.44326 24.69277 31090 ft 512 kts 121°
2026-05-06 23:19 45.41326 24.76540 31092 ft 512 kts 121°
2026-05-06 23:19 45.37110 24.86715 31090 ft 514 kts 121°
2026-05-06 23:20 45.33472 24.95467 31093 ft 514 kts 121°
2026-05-06 23:20 45.29887 25.04066 31093 ft 514 kts 121°
2026-05-06 23:21 45.26827 25.11382 31101 ft 514 kts 120°
2026-05-06 23:21 45.23185 25.20068 31097 ft 515 kts 120°
2026-05-06 23:22 45.19514 25.28795 31098 ft 516 kts 120°
2026-05-06 23:22 45.15831 25.37524 31100 ft 516 kts 120°
2026-05-06 23:23 45.12132 25.46261 31094 ft 517 kts 120°
2026-05-06 23:23 45.08422 25.54999 31092 ft 518 kts 120°
2026-05-06 23:24 45.04697 25.63746 31084 ft 519 kts 121°
2026-05-06 23:24 45.00989 25.72425 31091 ft 519 kts 120°
2026-05-06 23:25 44.97264 25.81119 31088 ft 519 kts 120°
2026-05-06 23:25 44.93513 25.89844 31085 ft 520 kts 120°
2026-05-06 23:26 44.89753 25.98564 31082 ft 520 kts 120°
2026-05-06 23:26 44.86062 26.07100 31081 ft 521 kts 120°
2026-05-06 23:27 44.82309 26.15751 31078 ft 522 kts 120°
2026-05-06 23:27 44.78512 26.24476 31075 ft 522 kts 120°
2026-05-06 23:28 44.74703 26.33204 31073 ft 523 kts 120°
2026-05-06 23:28 44.70903 26.41885 31073 ft 524 kts 120°
2026-05-06 23:29 44.67066 26.50622 31068 ft 525 kts 120°
2026-05-06 23:29 44.63223 26.59347 31086 ft 525 kts 120°
2026-05-06 23:30 44.59372 26.68063 31062 ft 526 kts 120°
2026-05-06 23:30 44.55530 26.76732 31053 ft 526 kts 120°
2026-05-06 23:31 44.51659 26.85439 31068 ft 526 kts 120°
2026-05-06 23:31 44.47786 26.94126 31070 ft 525 kts 120°
2026-05-06 23:32 44.44028 27.02530 31072 ft 525 kts 120°
2026-05-06 23:32 44.40138 27.11202 31052 ft 525 kts 120°
2026-05-06 23:33 44.36253 27.19837 31066 ft 525 kts 120°
2026-05-06 23:33 44.32361 27.28462 31066 ft 525 kts 120°
2026-05-06 23:34 44.28463 27.37077 31069 ft 525 kts 120°
2026-05-06 23:34 44.24548 27.45701 31082 ft 525 kts 120°
2026-05-06 23:35 44.20653 27.54255 31080 ft 525 kts 120°
2026-05-06 23:35 44.16732 27.62842 31079 ft 524 kts 120°
2026-05-06 23:36 44.12808 27.71409 31078 ft 524 kts 120°
2026-05-06 23:36 44.08909 27.79896 31092 ft 523 kts 120°
2026-05-06 23:37 44.04961 27.88466 31076 ft 522 kts 120°
2026-05-06 23:37 44.01055 27.96921 31092 ft 521 kts 120°
2026-05-06 23:38 43.97198 28.05245 31107 ft 522 kts 120°
2026-05-06 23:38 43.93287 28.13661 31101 ft 522 kts 120°
2026-05-06 23:39 43.89344 28.22120 31102 ft 522 kts 120°
2026-05-06 23:39 43.85389 28.30580 31125 ft 522 kts 120°
2026-05-06 23:40 43.81424 28.39039 31110 ft 522 kts 120°
2026-05-06 23:40 43.77483 28.47420 31106 ft 522 kts 120°
2026-05-06 23:41 43.73514 28.55838 31111 ft 522 kts 120°
2026-05-06 23:41 43.69544 28.64234 31126 ft 521 kts 120°
2026-05-06 23:42 43.65573 28.72607 31115 ft 520 kts 120°
2026-05-06 23:42 43.61603 28.80955 31117 ft 519 kts 120°
2026-05-06 23:43 43.57630 28.89284 31121 ft 519 kts 120°
2026-05-06 23:43 43.53653 28.97600 31115 ft 519 kts 121°
2026-05-06 23:44 43.49735 29.05769 31124 ft 519 kts 121°
2026-05-06 23:44 43.45745 29.14064 31144 ft 519 kts 121°
2026-05-06 23:45 43.41774 29.22298 31119 ft 519 kts 121°
2026-05-06 23:45 43.37772 29.30571 31131 ft 518 kts 121°
2026-05-06 23:46 43.33768 29.38826 31152 ft 518 kts 121°
2026-05-06 23:46 43.29776 29.47035 31125 ft 516 kts 121°
2026-05-06 23:47 43.25810 29.55165 31127 ft 514 kts 121°
2026-05-06 23:47 43.21820 29.63322 31127 ft 513 kts 121°
2026-05-06 23:48 43.17836 29.71445 31122 ft 513 kts 121°
2026-05-06 23:48 43.13853 29.79544 31126 ft 513 kts 122°
2026-05-06 23:49 43.09861 29.87641 31128 ft 514 kts 122°
2026-05-06 23:49 43.05848 29.95755 31133 ft 515 kts 122°
2026-05-06 23:50 43.01911 30.03697 31122 ft 515 kts 122°
2026-05-06 23:50 42.95866 30.15847 31123 ft 515 kts 122°
2026-05-06 23:51 42.91834 30.23926 31132 ft 514 kts 122°
2026-05-06 23:51 42.87814 30.31957 31124 ft 511 kts 122°
2026-05-06 23:52 42.83803 30.39950 31122 ft 509 kts 122°
2026-05-06 23:52 42.79802 30.47906 31130 ft 507 kts 122°
2026-05-06 23:53 42.76011 30.55701 31111 ft 504 kts 116°
2026-05-06 23:53 42.73481 30.64447 31128 ft 498 kts 102°
2026-05-06 23:54 42.72356 30.73699 31144 ft 495 kts 94°
2026-05-06 23:54 42.71491 30.82982 31125 ft 495 kts 95°
2026-05-06 23:55 42.70581 30.92273 31119 ft 496 kts 95°
2026-05-06 23:55 42.69641 31.01445 31120 ft 496 kts 95°
2026-05-06 23:56 42.68672 31.10739 31128 ft 496 kts 95°
2026-05-06 23:56 42.67698 31.20021 31297 ft 498 kts 95°
2026-05-06 23:57 42.67213 31.24620 31658 ft 496 kts 95°
2026-05-06 23:57 42.66722 31.29245 32047 ft 493 kts 95°
2026-05-06 23:57 42.66232 31.33857 32412 ft 492 kts 95°
2026-05-06 23:57 42.65751 31.38370 32761 ft 490 kts 95°
2026-05-06 23:58 42.65260 31.42961 33051 ft 490 kts 95°
2026-05-06 23:58 42.64769 31.47544 33097 ft 492 kts 95°
2026-05-06 23:58 42.63784 31.56659 33110 ft 488 kts 95°
2026-05-06 23:59 42.62791 31.65773 33129 ft 486 kts 95°
2026-05-06 23:59 42.61798 31.74838 33120 ft 486 kts 95°
2026-05-07 00:00 42.60794 31.83925 33148 ft 486 kts 95°
2026-05-07 00:00 42.59954 31.91482 33120 ft 487 kts 94°
2026-05-07 00:01 42.58799 32.01802 33119 ft 487 kts 95°
2026-05-07 00:01 42.57678 32.10877 33118 ft 487 kts 95°
2026-05-07 00:02 42.56650 32.19861 33140 ft 486 kts 94°
2026-05-07 00:02 42.55630 32.28926 33124 ft 486 kts 94°
2026-05-07 00:03 42.54610 32.37825 33117 ft 486 kts 94°
2026-05-07 00:03 42.53555 32.46884 33128 ft 486 kts 94°
2026-05-07 00:04 42.52493 32.55921 33134 ft 485 kts 94°
2026-05-07 00:04 42.51423 32.64963 33117 ft 485 kts 94°
2026-05-07 00:05 42.50355 32.73944 33116 ft 484 kts 94°
2026-05-07 00:05 42.49274 32.82966 33120 ft 484 kts 94°
2026-05-07 00:06 42.48187 32.91976 33117 ft 485 kts 94°
2026-05-07 00:06 42.47112 33.00831 33118 ft 485 kts 94°
2026-05-07 00:07 42.46009 33.09865 33118 ft 485 kts 95°
2026-05-07 00:07 42.45089 33.17363 33118 ft 486 kts 95°
2026-05-07 00:08 42.43986 33.26387 33131 ft 486 kts 95°
2026-05-07 00:08 42.42876 33.35429 33124 ft 487 kts 94°
2026-05-07 00:09 42.41752 33.44483 33126 ft 487 kts 95°
2026-05-07 00:09 42.40614 33.53448 33112 ft 486 kts 95°
2026-05-07 00:10 42.39455 33.62505 33119 ft 485 kts 95°
2026-05-07 00:10 42.38302 33.71496 33126 ft 485 kts 95°
2026-05-07 00:11 42.37154 33.80405 33122 ft 484 kts 95°
2026-05-07 00:11 42.35992 33.89360 33120 ft 483 kts 95°
2026-05-07 00:12 42.34824 33.98308 33127 ft 483 kts 96°
2026-05-07 00:12 42.33666 34.07153 33122 ft 483 kts 96°
2026-05-07 00:13 42.32487 34.16099 33122 ft 483 kts 96°
2026-05-07 00:13 42.31302 34.25045 33124 ft 483 kts 96°
2026-05-07 00:14 42.30113 34.33979 33123 ft 483 kts 97°
2026-05-07 00:14 42.28917 34.42869 33131 ft 483 kts 97°
2026-05-07 00:15 42.27693 34.51788 33129 ft 482 kts 98°
2026-05-07 00:15 42.26467 34.60676 33125 ft 480 kts 98°
2026-05-07 00:16 42.25242 34.69532 33125 ft 479 kts 98°
2026-05-07 00:16 42.24015 34.78356 33127 ft 478 kts 98°
2026-05-07 00:17 42.22784 34.87164 33129 ft 477 kts 98°
2026-05-07 00:17 42.21559 34.95919 33132 ft 477 kts 98°
2026-05-07 00:18 42.20340 35.04589 33132 ft 478 kts 98°
2026-05-07 00:18 42.19092 35.13413 33138 ft 478 kts 98°
2026-05-07 00:19 42.17836 35.22234 33136 ft 479 kts 98°
2026-05-07 00:19 42.16582 35.30995 33139 ft 479 kts 98°
2026-05-07 00:20 42.15314 35.39814 33138 ft 479 kts 98°
2026-05-07 00:20 42.14039 35.48637 33148 ft 479 kts 99°
2026-05-07 00:21 42.12759 35.57463 33142 ft 479 kts 99°
2026-05-07 00:21 42.11476 35.66270 33141 ft 479 kts 99°
2026-05-07 00:22 42.10190 35.75059 33144 ft 478 kts 99°
2026-05-07 00:22 42.08897 35.83842 33147 ft 478 kts 99°
2026-05-07 00:23 42.07598 35.92615 33148 ft 478 kts 99°
2026-05-07 00:23 42.06313 36.01243 33150 ft 478 kts 99°
2026-05-07 00:24 42.04999 36.10020 33152 ft 478 kts 99°
2026-05-07 00:24 42.03676 36.18810 33156 ft 479 kts 99°
2026-05-07 00:25 42.02344 36.27612 33156 ft 480 kts 99°
2026-05-07 00:25 42.01004 36.36414 33157 ft 480 kts 99°
2026-05-07 00:26 41.99658 36.45214 33155 ft 481 kts 99°
2026-05-07 00:26 41.98313 36.53955 33156 ft 481 kts 99°
2026-05-07 00:27 41.96950 36.62771 33158 ft 481 kts 99°
2026-05-07 00:27 41.95583 36.71563 33158 ft 480 kts 100°
2026-05-07 00:28 41.94210 36.80349 33166 ft 480 kts 100°
2026-05-07 00:28 41.92829 36.89139 33160 ft 480 kts 100°
2026-05-07 00:29 41.91452 36.97870 33154 ft 480 kts 100°
2026-05-07 00:30 41.88580 37.10648 33176 ft 483 kts 111°
2026-05-07 00:30 41.87248 37.14796 33160 ft 483 kts 111°
2026-05-07 00:30 41.84580 37.23084 33174 ft 484 kts 111°
2026-05-07 00:31 41.81960 37.31337 33170 ft 484 kts 111°
2026-05-07 00:31 41.79334 37.39654 33162 ft 484 kts 111°
2026-05-07 00:32 41.76701 37.47974 33165 ft 485 kts 111°
2026-05-07 00:32 41.74058 37.56292 33166 ft 485 kts 111°
2026-05-07 00:33 41.71406 37.64610 33169 ft 486 kts 111°
2026-05-07 00:33 41.68744 37.72915 33173 ft 486 kts 112°
2026-05-07 00:34 41.66067 37.81223 33166 ft 486 kts 112°
2026-05-07 00:34 41.63403 37.89473 33169 ft 486 kts 112°
2026-05-07 00:35 41.60714 37.97779 33162 ft 486 kts 112°
2026-05-07 00:35 41.58057 38.05968 33167 ft 487 kts 112°
2026-05-07 00:36 41.55353 38.14271 33170 ft 487 kts 112°
2026-05-07 00:36 41.52661 38.22515 33168 ft 487 kts 112°
2026-05-07 00:37 41.49940 38.30821 33161 ft 488 kts 113°
2026-05-07 00:37 41.47212 38.39123 33165 ft 489 kts 113°
2026-05-07 00:38 41.44486 38.47394 33166 ft 489 kts 113°
2026-05-07 00:38 41.41746 38.55687 33160 ft 489 kts 113°
2026-05-07 00:39 41.38996 38.63981 33158 ft 489 kts 114°
2026-05-07 00:39 41.36239 38.72278 33161 ft 489 kts 114°
2026-05-07 00:40 41.33482 38.80554 33161 ft 489 kts 113°
2026-05-07 00:40 41.30775 38.88799 33163 ft 489 kts 113°
2026-05-07 00:41 41.28058 38.97104 33167 ft 490 kts 113°
2026-05-07 00:41 41.25360 39.05311 33164 ft 490 kts 114°
2026-05-07 00:42 41.22620 39.13612 33162 ft 490 kts 114°
2026-05-07 00:42 41.19852 39.21844 33162 ft 490 kts 115°
2026-05-07 00:43 41.16971 39.30052 33161 ft 491 kts 115°
2026-05-07 00:43 41.14073 39.38274 33163 ft 491 kts 115°
2026-05-07 00:44 41.11186 39.46494 33169 ft 491 kts 115°
2026-05-07 00:44 41.08323 39.54643 33175 ft 491 kts 115°
2026-05-07 00:45 41.05434 39.62839 33182 ft 491 kts 115°
2026-05-07 00:45 41.02538 39.71034 33177 ft 491 kts 116°
2026-05-07 00:46 41.00126 39.79488 33182 ft 492 kts 104°
2026-05-07 00:46 40.99162 39.88443 33184 ft 493 kts 92°
2026-05-07 00:47 40.99019 39.97526 33187 ft 494 kts 91°
2026-05-07 00:47 40.98856 40.06419 33175 ft 495 kts 92°
2026-05-07 00:48 40.98627 40.15543 33172 ft 496 kts 92°
2026-05-07 00:48 40.98386 40.24682 33170 ft 496 kts 92°
2026-05-07 00:49 40.98140 40.33752 33172 ft 496 kts 92°
2026-05-07 00:49 40.97886 40.42886 33172 ft 496 kts 92°
2026-05-07 00:50 40.97625 40.52021 33159 ft 497 kts 93°
2026-05-07 00:50 40.97358 40.61169 33165 ft 497 kts 93°
2026-05-07 00:51 40.97082 40.70323 33167 ft 497 kts 93°
2026-05-07 00:51 40.96802 40.79424 33163 ft 498 kts 93°
2026-05-07 00:52 40.96514 40.88579 33159 ft 498 kts 93°
2026-05-07 00:52 40.96211 40.97758 33165 ft 499 kts 94°
2026-05-07 00:53 40.95902 41.06812 33168 ft 500 kts 94°
2026-05-07 00:53 40.95585 41.15967 33173 ft 501 kts 94°
2026-05-07 00:54 40.95258 41.25196 33173 ft 502 kts 94°
2026-05-07 00:54 40.94927 41.34425 33161 ft 503 kts 94°
2026-05-07 00:55 40.94584 41.43690 33173 ft 504 kts 94°
2026-05-07 00:55 40.94236 41.52907 33181 ft 506 kts 94°
2026-05-07 00:56 40.93877 41.62226 33180 ft 508 kts 95°
2026-05-07 00:56 40.93510 41.71563 33167 ft 508 kts 95°
2026-05-07 00:57 40.93198 41.79349 33176 ft 509 kts 95°
2026-05-07 00:57 40.92815 41.88726 33183 ft 510 kts 95°
2026-05-07 00:58 40.92425 41.98093 33162 ft 509 kts 95°
2026-05-07 00:58 40.92035 42.07300 33170 ft 509 kts 95°
2026-05-07 00:59 40.91427 42.21292 33171 ft 511 kts 96°
2026-05-07 01:00 40.91006 42.30716 33161 ft 513 kts 96°
2026-05-07 01:00 40.90579 42.40147 33162 ft 514 kts 96°
2026-05-07 01:01 40.90144 42.49594 33161 ft 514 kts 96°
2026-05-07 01:01 40.89704 42.58979 33156 ft 514 kts 97°
2026-05-07 01:02 40.89253 42.68439 33155 ft 515 kts 97°
2026-05-07 01:02 40.88793 42.77896 33151 ft 515 kts 97°
2026-05-07 01:03 40.88326 42.87350 33152 ft 516 kts 97°
2026-05-07 01:03 40.87851 42.96808 33129 ft 516 kts 97°
2026-05-07 01:04 40.87378 43.06059 33142 ft 517 kts 97°
2026-05-07 01:04 40.86887 43.15551 33136 ft 518 kts 97°
2026-05-07 01:05 40.86386 43.25059 33136 ft 519 kts 97°
2026-05-07 01:05 40.85877 43.34576 33133 ft 519 kts 97°
2026-05-07 01:06 40.85360 43.44092 33133 ft 519 kts 97°
2026-05-07 01:06 40.84836 43.53599 33125 ft 518 kts 97°
2026-05-07 01:07 40.84307 43.63084 33137 ft 517 kts 97°
2026-05-07 01:07 40.83813 43.72498 33128 ft 517 kts 96°
2026-05-07 01:08 40.83536 43.82000 33131 ft 518 kts 96°
2026-05-07 01:08 40.83231 43.91510 33132 ft 519 kts 96°
2026-05-07 01:09 40.82911 44.00955 33128 ft 521 kts 96°
2026-05-07 01:09 40.82583 44.10473 33115 ft 522 kts 96°
2026-05-07 01:10 40.82247 44.20066 33105 ft 523 kts 96°
2026-05-07 01:10 40.81903 44.29655 33115 ft 523 kts 96°
2026-05-07 01:11 40.81551 44.39275 33108 ft 525 kts 96°
2026-05-07 01:11 40.81188 44.48900 33109 ft 524 kts 96°
2026-05-07 01:12 40.80824 44.58447 33117 ft 524 kts 96°
2026-05-07 01:12 40.80447 44.68048 33105 ft 523 kts 96°
2026-05-07 01:13 40.80061 44.77644 33118 ft 524 kts 97°
2026-05-07 01:13 40.79667 44.87251 33100 ft 525 kts 97°
2026-05-07 01:14 40.79265 44.96870 33132 ft 525 kts 97°
2026-05-07 01:14 40.78864 45.06369 33085 ft 526 kts 97°
2026-05-07 01:15 40.78446 45.16017 33111 ft 526 kts 97°
2026-05-07 01:15 40.78020 45.25603 33115 ft 527 kts 97°
2026-05-07 01:16 40.77586 45.35265 33110 ft 527 kts 97°
2026-05-07 01:16 40.77146 45.44932 33118 ft 527 kts 97°
2026-05-07 01:17 40.76575 45.54566 33116 ft 525 kts 100°
2026-05-07 01:17 40.75707 45.64136 33109 ft 525 kts 101°
2026-05-07 01:18 40.74800 45.73640 33106 ft 525 kts 101°
2026-05-07 01:18 40.73907 45.83218 33104 ft 525 kts 101°
2026-05-07 01:19 40.73023 45.92796 33087 ft 525 kts 101°
2026-05-07 01:19 40.72155 46.02158 33097 ft 526 kts 101°
2026-05-07 01:20 40.71258 46.11723 33100 ft 526 kts 101°
2026-05-07 01:20 40.70357 46.21234 33111 ft 526 kts 101°
2026-05-07 01:21 40.69440 46.30809 33094 ft 526 kts 101°
2026-05-07 01:21 40.68517 46.40379 33104 ft 527 kts 101°
2026-05-07 01:22 40.67582 46.49988 33104 ft 528 kts 101°
2026-05-07 01:22 40.66639 46.59595 33101 ft 529 kts 102°
2026-05-07 01:23 40.65692 46.69154 33093 ft 529 kts 102°
2026-05-07 01:23 40.64733 46.78760 33107 ft 529 kts 102°
2026-05-07 01:24 40.63765 46.88374 33104 ft 529 kts 102°
2026-05-07 01:24 40.62795 46.97922 33105 ft 528 kts 102°
2026-05-07 01:25 40.61828 47.07376 33085 ft 528 kts 102°
2026-05-07 01:25 40.60843 47.16953 33103 ft 528 kts 101°
2026-05-07 01:26 40.60369 47.26656 33111 ft 531 kts 96°
2026-05-07 01:26 40.60144 47.36360 33106 ft 531 kts 95°
2026-05-07 01:27 40.59890 47.46029 33102 ft 531 kts 96°
2026-05-07 01:27 40.59594 47.55731 33104 ft 531 kts 96°
2026-05-07 01:28 40.59283 47.65438 33106 ft 530 kts 96°
2026-05-07 01:28 40.58967 47.75153 33106 ft 530 kts 96°
2026-05-07 01:29 40.58648 47.84776 33104 ft 530 kts 96°
2026-05-07 01:29 40.58326 47.94457 33082 ft 530 kts 95°
2026-05-07 01:30 40.58498 48.04048 33105 ft 532 kts 91°
2026-05-07 01:30 40.58824 48.13795 33108 ft 532 kts 91°
2026-05-07 01:31 40.59081 48.23470 33103 ft 533 kts 91°
2026-05-07 01:31 40.59338 48.33214 33110 ft 533 kts 91°
2026-05-07 01:32 40.59593 48.42965 33106 ft 533 kts 91°
2026-05-07 01:32 40.59839 48.52727 33097 ft 532 kts 92°
2026-05-07 01:33 40.60077 48.62474 33112 ft 533 kts 92°
2026-05-07 01:33 40.60308 48.72251 33117 ft 533 kts 92°
2026-05-07 01:34 40.60525 48.81970 33114 ft 534 kts 92°
2026-05-07 01:34 40.60740 48.91760 33109 ft 535 kts 92°
2026-05-07 01:35 40.60943 49.01399 33080 ft 534 kts 92°
2026-05-07 01:35 40.61141 49.11174 33103 ft 534 kts 92°
2026-05-07 01:36 40.60992 49.20864 33099 ft 530 kts 101°
2026-05-07 01:36 40.59657 49.30321 33111 ft 524 kts 108°
2026-05-07 01:37 40.58075 49.39703 33098 ft 525 kts 108°
2026-05-07 01:37 40.56573 49.49125 33095 ft 526 kts 108°
2026-05-07 01:38 40.55038 49.58545 33082 ft 527 kts 108°
2026-05-07 01:38 40.53489 49.67920 33085 ft 528 kts 108°
2026-05-07 01:39 40.51928 49.77357 33063 ft 528 kts 108°
2026-05-07 01:39 40.50363 49.86781 33069 ft 528 kts 108°
2026-05-07 01:40 40.48787 49.96226 33074 ft 528 kts 108°
2026-05-07 01:40 40.47236 50.05480 33079 ft 528 kts 109°
2026-05-07 01:41 40.45853 50.14997 33043 ft 531 kts 106°
2026-05-07 01:41 40.44641 50.24558 33076 ft 531 kts 106°
2026-05-07 01:42 40.43397 50.34142 33082 ft 531 kts 106°
2026-05-07 01:42 40.42108 50.43694 33082 ft 532 kts 107°
2026-05-07 01:43 40.40803 50.53193 33057 ft 532 kts 107°
2026-05-07 01:43 40.39481 50.62762 33084 ft 532 kts 107°
2026-05-07 01:44 40.38380 50.70707 33091 ft 532 kts 107°
2026-05-07 01:44 40.36837 50.81783 33093 ft 533 kts 107°
2026-05-07 01:45 40.35502 50.91300 33065 ft 533 kts 107°
2026-05-07 01:45 40.34170 51.00739 33096 ft 533 kts 107°
2026-05-07 01:46 40.33044 51.08667 33104 ft 533 kts 107°
2026-05-07 01:46 40.31677 51.18242 33100 ft 533 kts 107°
2026-05-07 01:47 40.30305 51.27791 33096 ft 533 kts 108°
2026-05-07 01:47 40.28928 51.37327 33102 ft 532 kts 108°
2026-05-07 01:48 40.27554 51.46786 33102 ft 532 kts 108°
2026-05-07 01:48 40.26161 51.56309 33099 ft 533 kts 108°
2026-05-07 01:49 40.24758 51.65852 33098 ft 532 kts 108°
2026-05-07 01:49 40.23353 51.75360 33097 ft 532 kts 108°
2026-05-07 01:50 40.21938 51.84885 33089 ft 532 kts 108°
2026-05-07 01:50 40.20520 51.94377 33094 ft 532 kts 108°
2026-05-07 01:51 40.19117 52.03709 33074 ft 531 kts 108°
2026-05-07 01:51 40.17685 52.13187 33082 ft 531 kts 108°
2026-05-07 01:52 40.16242 52.22670 33080 ft 531 kts 108°
2026-05-07 01:52 40.14794 52.32142 33085 ft 531 kts 108°
2026-05-07 01:53 40.13342 52.41580 33081 ft 532 kts 108°
2026-05-07 01:53 40.11878 52.51044 33067 ft 531 kts 108°
2026-05-07 01:54 40.10405 52.60515 33079 ft 532 kts 108°
2026-05-07 01:54 40.08922 52.69989 33052 ft 532 kts 109°
2026-05-07 01:55 40.07432 52.79470 33027 ft 532 kts 109°
2026-05-07 01:55 40.05944 52.88877 33043 ft 532 kts 109°
2026-05-07 01:56 40.04438 52.98337 33048 ft 531 kts 109°
2026-05-07 01:56 40.02365 53.07329 33051 ft 521 kts 118°
2026-05-07 01:57 39.99802 53.16146 33014 ft 521 kts 119°
2026-05-07 01:57 39.97228 53.24986 33048 ft 521 kts 118°
2026-05-07 01:58 39.94682 53.33847 33061 ft 522 kts 118°
2026-05-07 01:58 39.92159 53.42671 33057 ft 523 kts 118°
2026-05-07 01:59 39.89606 53.51578 33058 ft 523 kts 118°
2026-05-07 01:59 39.87047 53.60464 33062 ft 524 kts 118°
2026-05-07 02:00 39.84478 53.69347 33062 ft 524 kts 118°
2026-05-07 02:00 39.81918 53.78171 33056 ft 524 kts 118°
2026-05-07 02:01 39.79339 53.87033 33066 ft 524 kts 118°
2026-05-07 02:01 39.76749 53.95898 33064 ft 524 kts 118°
2026-05-07 02:02 39.74240 54.04459 33036 ft 524 kts 118°
2026-05-07 02:02 39.71636 54.13318 33055 ft 524 kts 118°
2026-05-07 02:03 39.69041 54.22114 33074 ft 524 kts 118°
2026-05-07 02:03 39.66425 54.30950 33081 ft 524 kts 118°
2026-05-07 02:04 39.63799 54.39795 33062 ft 525 kts 118°
2026-05-07 02:04 39.61163 54.48641 33065 ft 526 kts 118°
2026-05-07 02:05 39.58520 54.57486 33057 ft 526 kts 118°
2026-05-07 02:05 39.55884 54.66275 33040 ft 526 kts 118°
2026-05-07 02:06 39.53228 54.75103 33050 ft 525 kts 117°
2026-05-07 02:06 39.50570 54.83909 33061 ft 525 kts 118°
2026-05-07 02:07 39.47899 54.92729 33066 ft 525 kts 118°
2026-05-07 02:07 39.43952 55.05709 33068 ft 525 kts 118°
2026-05-07 02:08 39.41265 55.14510 33064 ft 526 kts 118°
2026-05-07 02:08 39.38570 55.23308 33051 ft 526 kts 118°
2026-05-07 02:09 39.35884 55.32052 33054 ft 526 kts 118°
2026-05-07 02:09 39.33169 55.40861 33064 ft 527 kts 118°
2026-05-07 02:10 39.30450 55.49661 33065 ft 528 kts 118°
2026-05-07 02:10 39.27672 55.58393 33052 ft 525 kts 121°
2026-05-07 02:11 39.24455 55.66829 33058 ft 524 kts 123°
2026-05-07 02:11 39.21194 55.75191 33056 ft 525 kts 123°
2026-05-07 02:12 39.17936 55.83616 33062 ft 525 kts 122°
2026-05-07 02:12 39.14686 55.92054 33064 ft 526 kts 122°
2026-05-07 02:13 39.11470 56.00387 33063 ft 526 kts 122°
2026-05-07 02:13 39.08272 56.08644 33050 ft 526 kts 122°
2026-05-07 02:14 39.05003 56.17060 33054 ft 526 kts 123°
2026-05-07 02:14 39.01725 56.25477 33058 ft 525 kts 123°
2026-05-07 02:15 38.98746 56.34066 33040 ft 531 kts 115°
2026-05-07 02:15 38.96321 56.43061 33043 ft 533 kts 114°
2026-05-07 02:16 38.93923 56.52020 33052 ft 533 kts 114°
2026-05-07 02:16 38.91469 56.61007 33030 ft 534 kts 115°
2026-05-07 02:17 38.88981 56.70003 33033 ft 534 kts 115°
2026-05-07 02:17 38.86485 56.78988 33024 ft 535 kts 115°
2026-05-07 02:18 38.83976 56.88000 33012 ft 535 kts 115°
2026-05-07 02:18 38.81472 56.96969 32991 ft 535 kts 115°
2026-05-07 02:19 38.79023 57.05715 33001 ft 535 kts 115°
2026-05-07 02:19 38.76505 57.14671 33004 ft 534 kts 115°
2026-05-07 02:20 38.73983 57.23612 32993 ft 533 kts 115°
2026-05-07 02:20 38.71457 57.32539 32977 ft 533 kts 115°
2026-05-07 02:21 38.68924 57.41461 32999 ft 532 kts 115°
2026-05-07 02:21 38.66387 57.50366 32975 ft 532 kts 115°
2026-05-07 02:22 38.63842 57.59275 32975 ft 532 kts 115°
2026-05-07 02:22 38.61255 57.68093 32969 ft 530 kts 118°
2026-05-07 02:23 38.58252 57.76707 32976 ft 529 kts 119°
2026-05-07 02:23 38.55193 57.85281 32973 ft 530 kts 119°
2026-05-07 02:24 38.52155 57.93866 32961 ft 531 kts 119°
2026-05-07 02:24 38.49183 58.02300 32971 ft 530 kts 119°
2026-05-07 02:25 38.46148 58.10889 32962 ft 530 kts 119°
2026-05-07 02:25 38.43109 58.19460 32961 ft 530 kts 119°
2026-05-07 02:26 38.40150 58.28075 32952 ft 531 kts 115°
2026-05-07 02:26 38.38105 58.37123 32959 ft 535 kts 107°
2026-05-07 02:27 38.36344 58.46351 32952 ft 536 kts 107°
2026-05-07 02:27 38.34547 58.55589 32945 ft 536 kts 108°
2026-05-07 02:28 38.32711 58.64781 32936 ft 535 kts 108°
2026-05-07 02:28 38.30865 58.73919 32943 ft 535 kts 108°
2026-05-07 02:29 38.29003 58.83101 32936 ft 535 kts 108°
2026-05-07 02:29 38.27137 58.92285 32939 ft 535 kts 108°
2026-05-07 02:30 38.25303 59.01270 32927 ft 535 kts 108°
2026-05-07 02:30 38.23422 59.10449 32935 ft 535 kts 108°
2026-05-07 02:31 38.21537 59.19608 32936 ft 535 kts 108°
2026-05-07 02:31 38.19644 59.28768 32928 ft 535 kts 108°
2026-05-07 02:32 38.17757 59.37856 32937 ft 534 kts 108°
2026-05-07 02:32 38.16163 59.45505 32929 ft 534 kts 108°
2026-05-07 02:33 38.14254 59.54630 32922 ft 534 kts 108°
2026-05-07 02:33 38.12352 59.63685 32914 ft 533 kts 108°
2026-05-07 02:34 38.10431 59.72791 32913 ft 533 kts 108°
2026-05-07 02:34 38.08504 59.81888 32903 ft 532 kts 108°
2026-05-07 02:35 38.06574 59.90961 32910 ft 532 kts 108°
2026-05-07 02:35 38.04650 59.99976 32914 ft 532 kts 108°
2026-05-07 02:36 38.02763 60.08783 32906 ft 532 kts 108°
2026-05-07 02:36 38.00077 60.17438 32915 ft 524 kts 123°
2026-05-07 02:37 37.95903 60.24891 32902 ft 516 kts 137°
2026-05-07 02:37 37.90975 60.31478 32904 ft 516 kts 138°
2026-05-07 02:38 37.86044 60.38105 32913 ft 518 kts 137°
2026-05-07 02:38 37.81137 60.44812 32898 ft 519 kts 137°
2026-05-07 02:39 37.76252 60.51493 32916 ft 520 kts 137°
2026-05-07 02:39 37.71257 60.58127 32912 ft 520 kts 139°
2026-05-07 02:40 37.66156 60.64602 32898 ft 520 kts 139°
2026-05-07 02:40 37.61045 60.71075 32911 ft 521 kts 139°
2026-05-07 02:41 37.55976 60.77531 32912 ft 521 kts 139°
2026-05-07 02:41 37.50880 60.84030 32897 ft 521 kts 139°
2026-05-07 02:42 37.45781 60.90518 32912 ft 521 kts 139°
2026-05-07 02:42 37.40677 60.96994 32911 ft 521 kts 139°
2026-05-07 02:43 37.35724 61.03266 32913 ft 522 kts 139°
2026-05-07 02:43 37.30611 61.09729 32913 ft 521 kts 139°
2026-05-07 02:44 37.25530 61.16141 32907 ft 521 kts 139°
2026-05-07 02:44 37.20420 61.22574 32892 ft 520 kts 139°
2026-05-07 02:45 37.15301 61.28997 32904 ft 520 kts 139°
2026-05-07 02:45 37.10170 61.35422 32910 ft 521 kts 139°
2026-05-07 02:46 37.05074 61.41796 32899 ft 521 kts 139°
2026-05-07 02:46 36.99945 61.48200 32906 ft 522 kts 139°
2026-05-07 02:47 36.94772 61.54645 33050 ft 526 kts 139°
2026-05-07 02:47 36.92175 61.57877 33336 ft 526 kts 139°
2026-05-07 02:47 36.89578 61.61107 33631 ft 526 kts 139°
2026-05-07 02:48 36.87004 61.64300 33840 ft 528 kts 140°
2026-05-07 02:48 36.84478 61.67424 34056 ft 529 kts 140°
2026-05-07 02:48 36.81866 61.70651 34343 ft 527 kts 140°
2026-05-07 02:48 36.79260 61.73869 34657 ft 526 kts 140°
2026-05-07 02:49 36.76656 61.77083 34854 ft 527 kts 140°
2026-05-07 02:49 36.74145 61.80176 34880 ft 529 kts 140°
2026-05-07 02:49 36.68909 61.86622 34915 ft 528 kts 140°
2026-05-07 02:50 36.63685 61.93046 34917 ft 527 kts 140°
2026-05-07 02:50 36.58461 61.99453 34925 ft 526 kts 140°
2026-05-07 02:51 36.53320 62.05746 34916 ft 526 kts 140°
2026-05-07 02:51 36.48131 62.12085 34936 ft 527 kts 140°
2026-05-07 02:52 36.42892 62.18471 34932 ft 528 kts 140°
2026-05-07 02:52 36.37637 62.24865 34925 ft 529 kts 140°
2026-05-07 02:53 36.32370 62.31262 34931 ft 530 kts 140°
2026-05-07 02:53 36.27098 62.37651 34936 ft 531 kts 140°
2026-05-07 02:54 36.21804 62.44054 34907 ft 532 kts 140°
2026-05-07 02:54 36.16532 62.50418 34922 ft 532 kts 140°
2026-05-07 02:55 36.11219 62.56818 34939 ft 533 kts 140°
2026-05-07 02:55 36.05894 62.63222 34913 ft 534 kts 140°
2026-05-07 02:56 36.00569 62.69612 34924 ft 533 kts 140°
2026-05-07 02:56 35.95282 62.75944 34934 ft 534 kts 140°
2026-05-07 02:57 35.89949 62.82319 34933 ft 534 kts 140°
2026-05-07 02:57 35.84603 62.88694 34928 ft 534 kts 140°
2026-05-07 02:58 35.79255 62.95062 34941 ft 534 kts 140°
2026-05-07 02:58 35.73992 63.01317 34940 ft 535 kts 140°
2026-05-07 02:59 35.68636 63.07670 34942 ft 536 kts 140°
2026-05-07 02:59 35.63263 63.14034 34953 ft 536 kts 140°
2026-05-07 03:00 35.57950 63.20484 34946 ft 538 kts 135°
2026-05-07 03:00 35.53284 63.27724 34952 ft 540 kts 130°
2026-05-07 03:01 35.48792 63.35061 34954 ft 540 kts 130°
2026-05-07 03:01 35.44231 63.42398 34966 ft 541 kts 130°
2026-05-07 03:02 35.39627 63.49718 34964 ft 541 kts 130°
2026-05-07 03:02 35.35023 63.57027 34968 ft 540 kts 130°
2026-05-07 03:03 35.30427 63.64322 34989 ft 540 kts 130°
2026-05-07 03:03 35.25859 63.71561 34988 ft 540 kts 130°
2026-05-07 03:04 35.21270 63.78838 35022 ft 539 kts 130°
2026-05-07 03:04 35.16673 63.86114 35021 ft 540 kts 130°
2026-05-07 03:05 35.12072 63.93379 35034 ft 541 kts 130°
2026-05-07 03:05 35.07507 64.00574 35056 ft 542 kts 130°
2026-05-07 03:06 35.02915 64.07790 35050 ft 541 kts 130°
2026-05-07 03:06 34.98314 64.15027 35073 ft 541 kts 130°
2026-05-07 03:07 34.93681 64.22278 35077 ft 542 kts 130°
2026-05-07 03:07 34.89042 64.29532 35093 ft 543 kts 130°
2026-05-07 03:08 34.84382 64.36804 35096 ft 543 kts 130°
2026-05-07 03:08 34.79731 64.44047 35111 ft 543 kts 130°
2026-05-07 03:09 34.75098 64.51244 35121 ft 543 kts 130°
2026-05-07 03:09 34.70431 64.58482 35135 ft 544 kts 130°
2026-05-07 03:10 34.65746 64.65730 35131 ft 543 kts 130°
2026-05-07 03:10 34.61105 64.72900 35138 ft 543 kts 130°
2026-05-07 03:11 34.56417 64.80125 35152 ft 544 kts 130°
2026-05-07 03:11 34.51730 64.87340 35143 ft 544 kts 130°
2026-05-07 03:12 34.47028 64.94550 35148 ft 545 kts 130°
2026-05-07 03:12 34.42405 65.01610 35179 ft 545 kts 130°
2026-05-07 03:13 34.37690 65.08800 35166 ft 546 kts 130°
2026-05-07 03:13 34.32959 65.16006 35152 ft 546 kts 130°
2026-05-07 03:14 34.28226 65.23201 35161 ft 546 kts 130°
2026-05-07 03:15 34.21122 65.33972 35163 ft 546 kts 130°
2026-05-07 03:15 34.16383 65.41143 35137 ft 546 kts 130°
2026-05-07 03:16 34.11673 65.48257 35148 ft 546 kts 130°
2026-05-07 03:16 34.06919 65.55417 35150 ft 546 kts 130°
2026-05-07 03:17 34.02177 65.62554 35122 ft 548 kts 130°
2026-05-07 03:17 33.97386 65.69748 35153 ft 548 kts 130°
2026-05-07 03:18 33.92642 65.76864 35101 ft 546 kts 130°
2026-05-07 03:18 33.87880 65.83992 35105 ft 545 kts 130°
2026-05-07 03:19 33.83149 65.91049 35124 ft 544 kts 130°
2026-05-07 03:19 33.78401 65.98133 35092 ft 544 kts 130°
2026-05-07 03:20 33.73850 66.04911 35085 ft 543 kts 130°
2026-05-07 03:20 33.69914 66.10756 35049 ft 541 kts 130°
2026-05-07 03:21 33.65192 66.17758 35105 ft 540 kts 130°
2026-05-07 03:21 33.60441 66.24795 35080 ft 544 kts 130°
2026-05-07 03:22 33.55662 66.31853 35093 ft 546 kts 130°
2026-05-07 03:22 33.50866 66.38930 35092 ft 547 kts 130°
2026-05-07 03:23 33.46057 66.46006 35063 ft 547 kts 130°
2026-05-07 03:23 33.41275 66.53002 35082 ft 544 kts 130°
2026-05-07 03:24 33.36464 66.60003 35133 ft 544 kts 130°
2026-05-07 03:24 33.31650 66.67017 35114 ft 545 kts 130°
2026-05-07 03:25 33.26863 66.73975 35090 ft 544 kts 130°
2026-05-07 03:25 33.22056 66.80952 35097 ft 545 kts 130°
2026-05-07 03:26 33.17226 66.87956 35107 ft 548 kts 130°
2026-05-07 03:26 33.12355 66.94995 35105 ft 550 kts 130°
2026-05-07 03:27 33.07540 67.01942 35091 ft 551 kts 130°
2026-05-07 03:27 33.02645 67.08990 35044 ft 551 kts 130°
2026-05-07 03:28 32.97794 67.15960 35059 ft 550 kts 130°
2026-05-07 03:28 32.92915 67.22962 35040 ft 549 kts 130°
2026-05-07 03:29 32.88049 67.29930 35006 ft 546 kts 130°
2026-05-07 03:29 32.83197 67.36869 34997 ft 543 kts 130°
2026-05-07 03:30 32.78369 67.43759 34975 ft 540 kts 130°
2026-05-07 03:30 32.73482 67.50526 34992 ft 538 kts 132°
2026-05-07 03:31 32.68480 67.57172 35007 ft 540 kts 132°
2026-05-07 03:31 32.63512 67.63797 34974 ft 542 kts 132°
2026-05-07 03:32 32.58500 67.70519 34996 ft 546 kts 132°
2026-05-07 03:32 32.53448 67.77290 34998 ft 549 kts 132°
2026-05-07 03:33 32.48406 67.84074 34985 ft 551 kts 131°
2026-05-07 03:33 32.43514 67.91080 34984 ft 552 kts 129°
2026-05-07 03:34 32.38673 67.98144 34993 ft 553 kts 129°
2026-05-07 03:34 32.33855 68.05104 34994 ft 554 kts 130°
2026-05-07 03:35 32.28940 68.12132 34989 ft 555 kts 130°
2026-05-07 03:35 32.24042 68.19111 34980 ft 554 kts 130°
2026-05-07 03:36 32.19116 68.26124 34987 ft 553 kts 130°
2026-05-07 03:36 32.14203 68.33109 34980 ft 552 kts 130°
2026-05-07 03:37 32.09293 68.40078 34974 ft 552 kts 130°
2026-05-07 03:37 32.04382 68.47034 34967 ft 551 kts 130°
2026-05-07 03:38 31.99513 68.53918 34978 ft 550 kts 130°
2026-05-07 03:38 31.94619 68.60825 34965 ft 549 kts 130°
2026-05-07 03:39 31.89714 68.67736 34937 ft 548 kts 130°
2026-05-07 03:39 31.84826 68.74607 34935 ft 547 kts 130°
2026-05-07 03:40 31.79933 68.81476 34941 ft 547 kts 130°
2026-05-07 03:40 31.75051 68.88320 34950 ft 547 kts 130°
2026-05-07 03:41 31.70180 68.95140 34930 ft 548 kts 130°
2026-05-07 03:41 31.65363 69.01888 34927 ft 548 kts 129°
2026-05-07 03:42 31.60623 69.08899 34918 ft 549 kts 127°
2026-05-07 03:42 31.55922 69.15974 34910 ft 550 kts 128°
2026-05-07 03:43 31.51182 69.23023 34916 ft 551 kts 128°
2026-05-07 03:43 31.46409 69.30068 34881 ft 551 kts 128°
2026-05-07 03:44 31.41649 69.37091 34890 ft 550 kts 128°
2026-05-07 03:44 31.36485 69.43576 34892 ft 547 kts 145°
2026-05-07 03:44 31.33269 69.45923 34908 ft 544 kts 156°
2026-05-07 03:45 31.29795 69.47619 34894 ft 540 kts 167°
2026-05-07 03:45 31.22498 69.49421 34890 ft 536 kts 173°
2026-05-07 03:46 31.15143 69.51107 34886 ft 540 kts 173°
2026-05-07 03:46 31.07746 69.52901 34922 ft 544 kts 172°
2026-05-07 03:47 31.00323 69.54750 34893 ft 546 kts 172°
2026-05-07 03:47 30.92957 69.56588 34865 ft 546 kts 172°
2026-05-07 03:48 30.85537 69.58429 34872 ft 544 kts 172°
2026-05-07 03:48 30.78134 69.60257 34873 ft 543 kts 172°
2026-05-07 03:49 30.70739 69.62077 34865 ft 542 kts 172°
2026-05-07 03:49 30.63362 69.63897 34856 ft 541 kts 173°
2026-05-07 03:50 30.55988 69.65709 34858 ft 541 kts 173°
2026-05-07 03:50 30.48620 69.67516 34862 ft 542 kts 173°
2026-05-07 03:51 30.41276 69.69316 34852 ft 544 kts 173°
2026-05-07 03:51 30.33857 69.71132 34850 ft 546 kts 173°
2026-05-07 03:52 30.26400 69.72956 34856 ft 548 kts 173°
2026-05-07 03:52 30.18956 69.74922 34851 ft 551 kts 170°
2026-05-07 03:53 30.11520 69.77147 34846 ft 552 kts 169°
2026-05-07 03:53 30.04070 69.79388 34841 ft 553 kts 170°
2026-05-07 03:54 29.96666 69.81563 34826 ft 553 kts 170°
2026-05-07 03:54 29.89186 69.83732 34806 ft 554 kts 170°
2026-05-07 03:55 29.81730 69.85887 34812 ft 552 kts 171°
2026-05-07 03:55 29.74268 69.88046 34810 ft 554 kts 170°
2026-05-07 03:56 29.66787 69.90209 34797 ft 553 kts 170°
2026-05-07 03:56 29.59335 69.92363 34783 ft 550 kts 171°
2026-05-07 03:57 29.51980 69.94470 34763 ft 547 kts 170°
2026-05-07 03:57 29.44590 69.96600 34789 ft 547 kts 170°
2026-05-07 03:58 29.37174 69.98736 34762 ft 550 kts 170°
2026-05-07 03:58 29.29813 70.00850 34779 ft 554 kts 170°
2026-05-07 03:59 29.22333 70.02989 34768 ft 557 kts 170°
2026-05-07 03:59 29.14786 70.05147 34742 ft 559 kts 171°
2026-05-07 04:00 29.07227 70.07307 34745 ft 559 kts 171°
2026-05-07 04:00 28.99722 70.09448 34751 ft 559 kts 171°
2026-05-07 04:01 28.92160 70.11602 34749 ft 558 kts 171°
2026-05-07 04:01 28.84620 70.13746 34729 ft 557 kts 171°
2026-05-07 04:02 28.77096 70.15882 34737 ft 557 kts 171°
2026-05-07 04:02 28.69622 70.18001 34743 ft 556 kts 171°
2026-05-07 04:03 28.62092 70.20132 34737 ft 556 kts 171°
2026-05-07 04:03 28.54572 70.22258 34741 ft 556 kts 171°
2026-05-07 04:04 28.47098 70.24369 34737 ft 556 kts 171°
2026-05-07 04:04 28.39733 70.27076 34723 ft 562 kts 151°
2026-05-07 04:04 28.36587 70.29724 34745 ft 564 kts 136°
2026-05-07 04:05 28.34044 70.33104 34717 ft 563 kts 120°
2026-05-07 04:05 28.30672 70.41034 34744 ft 559 kts 111°
2026-05-07 04:06 28.27400 70.49092 34747 ft 565 kts 112°
2026-05-07 04:06 28.24076 70.56958 34743 ft 569 kts 113°
2026-05-07 04:07 28.21192 70.63663 34734 ft 569 kts 113°
2026-05-07 04:07 28.17158 70.73020 34733 ft 567 kts 113°
2026-05-07 04:08 28.13714 70.81020 34709 ft 564 kts 113°
2026-05-07 04:08 28.10854 70.87662 34731 ft 562 kts 113°
2026-05-07 04:09 28.07429 70.95602 34738 ft 561 kts 113°
2026-05-07 04:09 28.04064 71.03384 34734 ft 559 kts 113°
2026-05-07 04:10 28.00633 71.11304 34743 ft 559 kts 113°
2026-05-07 04:10 27.97203 71.19205 34746 ft 559 kts 113°
2026-05-07 04:11 27.93790 71.27053 34730 ft 560 kts 113°
2026-05-07 04:11 27.90342 71.34967 34749 ft 561 kts 113°
2026-05-07 04:12 27.86888 71.42880 34750 ft 562 kts 113°
2026-05-07 04:12 27.83317 71.50763 34747 ft 564 kts 115°
2026-05-07 04:13 27.79667 71.58609 34759 ft 565 kts 115°
2026-05-07 04:13 27.76017 71.66463 34752 ft 564 kts 115°
2026-05-07 04:14 27.72385 71.74315 34753 ft 563 kts 115°
2026-05-07 04:14 27.68763 71.82146 34757 ft 562 kts 115°
2026-05-07 04:15 27.65160 71.89924 34762 ft 562 kts 115°
2026-05-07 04:15 27.61531 71.97738 34758 ft 562 kts 115°
2026-05-07 04:16 27.57952 72.05427 34760 ft 562 kts 115°
2026-05-07 04:16 27.54313 72.13232 34759 ft 562 kts 115°
2026-05-07 04:17 27.50672 72.21028 34758 ft 562 kts 115°
2026-05-07 04:17 27.47048 72.28770 34780 ft 562 kts 115°
2026-05-07 04:18 27.43399 72.36553 34767 ft 562 kts 115°
2026-05-07 04:18 27.39739 72.44345 34773 ft 563 kts 115°
2026-05-07 04:19 27.36069 72.52145 34774 ft 563 kts 115°
2026-05-07 04:19 27.32402 72.59924 34773 ft 563 kts 115°
2026-05-07 04:20 27.28729 72.67700 34785 ft 564 kts 116°
2026-05-07 04:20 27.25051 72.75472 34778 ft 564 kts 116°
2026-05-07 04:21 27.19518 72.87140 34781 ft 563 kts 116°
2026-05-07 04:21 27.15849 72.94859 34780 ft 563 kts 116°
2026-05-07 04:22 27.12215 73.02492 34786 ft 563 kts 116°
2026-05-07 04:22 27.08517 73.10243 34780 ft 562 kts 116°
2026-05-07 04:23 27.04822 73.17975 34774 ft 562 kts 116°
2026-05-07 04:23 27.01119 73.25714 34785 ft 562 kts 116°
2026-05-07 04:24 26.97438 73.33394 34806 ft 563 kts 117°
2026-05-07 04:24 26.93707 73.41126 34801 ft 564 kts 117°
2026-05-07 04:25 26.89925 73.48840 34794 ft 564 kts 117°
2026-05-07 04:25 26.86139 73.56540 34801 ft 564 kts 117°
2026-05-07 04:26 26.82376 73.64201 34804 ft 564 kts 117°
2026-05-07 04:26 26.78591 73.71902 34800 ft 564 kts 117°
2026-05-07 04:27 26.74795 73.79614 34813 ft 564 kts 117°
2026-05-07 04:27 26.71005 73.87297 34815 ft 565 kts 118°
2026-05-07 04:28 26.67203 73.94990 34819 ft 565 kts 118°
2026-05-07 04:28 26.63478 74.02517 34837 ft 565 kts 118°
2026-05-07 04:29 26.59666 74.10205 34830 ft 565 kts 118°
2026-05-07 04:29 26.55847 74.17898 34809 ft 565 kts 118°
2026-05-07 04:30 26.52044 74.25599 34830 ft 565 kts 118°
2026-05-07 04:30 26.48301 74.33250 34841 ft 565 kts 118°
2026-05-07 04:31 26.44526 74.40955 34852 ft 565 kts 118°
2026-05-07 04:31 26.40737 74.48659 34843 ft 565 kts 118°
2026-05-07 04:32 26.36948 74.56349 34840 ft 565 kts 118°
2026-05-07 04:32 26.33175 74.63981 34820 ft 565 kts 118°
2026-05-07 04:33 26.29383 74.71646 34851 ft 564 kts 118°
2026-05-07 04:33 26.25591 74.79303 34852 ft 564 kts 118°
2026-05-07 04:34 26.21792 74.86960 34857 ft 565 kts 118°
2026-05-07 04:34 26.17978 74.94632 34855 ft 565 kts 119°
2026-05-07 04:35 26.13843 75.01897 34860 ft 565 kts 124°
2026-05-07 04:35 26.09417 75.09066 34867 ft 565 kts 124°
2026-05-07 04:36 26.04980 75.16286 34850 ft 565 kts 124°
2026-05-07 04:36 26.00569 75.23537 34861 ft 565 kts 124°
2026-05-07 04:37 25.96177 75.30762 34865 ft 565 kts 124°
2026-05-07 04:37 25.91790 75.37956 34865 ft 565 kts 124°
2026-05-07 04:38 25.87362 75.45196 34879 ft 566 kts 125°
2026-05-07 04:38 25.82699 75.52232 34842 ft 565 kts 128°
2026-05-07 04:39 25.77887 75.59135 34856 ft 565 kts 129°
2026-05-07 04:39 25.73108 75.66051 34880 ft 564 kts 128°
2026-05-07 04:40 25.68395 75.72957 34859 ft 564 kts 128°
2026-05-07 04:40 25.63664 75.79910 34897 ft 564 kts 128°
2026-05-07 04:41 25.58927 75.86856 34870 ft 564 kts 128°
2026-05-07 04:41 25.54194 75.93775 34873 ft 563 kts 128°
2026-05-07 04:42 25.49529 76.00583 34868 ft 562 kts 128°
2026-05-07 04:42 25.44796 76.07480 34871 ft 562 kts 128°
2026-05-07 04:43 25.40089 76.14330 34870 ft 562 kts 128°
2026-05-07 04:43 25.35355 76.21210 34863 ft 562 kts 129°
2026-05-07 04:44 25.30614 76.28090 34882 ft 562 kts 129°
2026-05-07 04:44 25.25881 76.34949 34865 ft 561 kts 129°
2026-05-07 04:45 25.21142 76.41806 34873 ft 560 kts 129°
2026-05-07 04:45 25.16436 76.48605 34873 ft 560 kts 129°
2026-05-07 04:46 25.11704 76.55434 34888 ft 560 kts 129°
2026-05-07 04:46 25.06965 76.62264 34883 ft 560 kts 129°
2026-05-07 04:47 25.02222 76.69091 34854 ft 560 kts 129°
2026-05-07 04:47 24.97228 76.75619 34881 ft 556 kts 136°
2026-05-07 04:48 24.91867 76.81753 34885 ft 556 kts 137°
2026-05-07 04:48 24.86469 76.87884 34899 ft 556 kts 137°
2026-05-07 04:49 24.81108 76.94031 34891 ft 557 kts 136°
2026-05-07 04:49 24.75813 77.00136 34885 ft 557 kts 136°
2026-05-07 04:50 24.70523 77.06234 34886 ft 557 kts 136°
2026-05-07 04:50 24.65167 77.12392 34891 ft 556 kts 137°
2026-05-07 04:51 24.59804 77.18546 34894 ft 556 kts 137°
2026-05-07 04:51 24.54468 77.24661 34905 ft 556 kts 137°
2026-05-07 04:52 24.49112 77.30791 34900 ft 556 kts 137°
2026-05-07 04:52 24.43749 77.36922 34887 ft 555 kts 137°
2026-05-07 04:53 24.39304 77.41997 34893 ft 554 kts 137°
2026-05-07 04:53 24.33961 77.48090 34893 ft 554 kts 137°
2026-05-07 04:54 24.28619 77.54173 34904 ft 553 kts 137°
2026-05-07 04:54 24.23275 77.60252 34916 ft 553 kts 137°
2026-05-07 04:55 24.17959 77.66290 34866 ft 553 kts 137°
2026-05-07 04:55 24.12622 77.72346 34900 ft 552 kts 137°
2026-05-07 04:56 24.07283 77.78395 34913 ft 552 kts 137°
2026-05-07 04:56 24.01943 77.84437 34914 ft 552 kts 137°
2026-05-07 04:57 23.96664 77.90403 34905 ft 552 kts 137°
2026-05-07 04:57 23.91338 77.96415 34936 ft 552 kts 138°
2026-05-07 04:58 23.86066 78.02358 34901 ft 551 kts 138°
2026-05-07 04:58 23.80737 78.08359 34909 ft 550 kts 138°
2026-05-07 04:59 23.75443 78.14313 34913 ft 549 kts 138°
2026-05-07 04:59 23.70118 78.20293 34915 ft 548 kts 138°
2026-05-07 05:00 23.64793 78.26265 34921 ft 548 kts 138°
2026-05-07 05:00 23.59483 78.32215 34910 ft 547 kts 138°
2026-05-07 05:01 23.54168 78.38162 34920 ft 547 kts 138°
2026-05-07 05:01 23.48884 78.44067 34917 ft 548 kts 138°
2026-05-07 05:02 23.43557 78.50013 34917 ft 548 kts 138°
2026-05-07 05:02 23.38231 78.55952 34917 ft 548 kts 138°
2026-05-07 05:03 23.32892 78.61898 34871 ft 548 kts 138°
2026-05-07 05:03 23.27593 78.67794 34912 ft 547 kts 138°
2026-05-07 05:04 23.22269 78.73710 34910 ft 547 kts 139°
2026-05-07 05:04 23.16893 78.79526 34905 ft 545 kts 140°
2026-05-07 05:05 23.11458 78.85267 34907 ft 544 kts 140°
2026-05-07 05:05 23.06029 78.91008 34904 ft 544 kts 140°
2026-05-07 05:06 23.00625 78.96746 34901 ft 543 kts 140°
2026-05-07 05:06 22.95301 79.02403 34907 ft 543 kts 140°
2026-05-07 05:07 22.89923 79.08108 34916 ft 543 kts 140°
2026-05-07 05:07 22.84500 79.13852 34915 ft 543 kts 140°
2026-05-07 05:08 22.79090 79.19575 34919 ft 544 kts 140°
2026-05-07 05:08 22.73670 79.25303 34902 ft 544 kts 140°
2026-05-07 05:09 22.68283 79.30990 34924 ft 543 kts 140°
2026-05-07 05:09 22.62865 79.36704 34932 ft 543 kts 140°
2026-05-07 05:10 22.57442 79.42416 34927 ft 543 kts 140°
2026-05-07 05:10 22.52079 79.48192 34937 ft 544 kts 139°
2026-05-07 05:11 22.46824 79.54031 34934 ft 544 kts 139°
2026-05-07 05:11 22.41549 79.59891 34924 ft 542 kts 139°
2026-05-07 05:12 22.36274 79.65709 34930 ft 541 kts 139°
2026-05-07 05:12 22.30989 79.71515 34927 ft 541 kts 139°
2026-05-07 05:13 22.25708 79.77309 34929 ft 540 kts 139°
2026-05-07 05:13 22.20461 79.83062 34925 ft 541 kts 139°
2026-05-07 05:14 22.15187 79.88839 34927 ft 540 kts 139°
2026-05-07 05:14 22.09898 79.94625 34926 ft 540 kts 139°
2026-05-07 05:15 22.04689 80.00320 34926 ft 539 kts 139°
2026-05-07 05:15 21.99460 80.06029 34928 ft 538 kts 139°
2026-05-07 05:16 21.94189 80.11776 34927 ft 538 kts 139°
2026-05-07 05:16 21.88926 80.17510 34933 ft 538 kts 139°
2026-05-07 05:17 21.83653 80.23247 34930 ft 538 kts 139°
2026-05-07 05:17 21.78379 80.28979 34928 ft 539 kts 140°
2026-05-07 05:18 21.73131 80.34676 34932 ft 539 kts 140°
2026-05-07 05:18 21.67851 80.40403 34933 ft 540 kts 140°
2026-05-07 05:19 21.62555 80.46141 34931 ft 540 kts 140°
2026-05-07 05:19 21.57250 80.51883 34929 ft 540 kts 140°
2026-05-07 05:20 21.51955 80.57609 34917 ft 539 kts 139°
2026-05-07 05:20 21.46715 80.63305 34921 ft 538 kts 139°
2026-05-07 05:21 21.38895 80.71913 34922 ft 536 kts 139°
2026-05-07 05:22 21.33681 80.77629 34918 ft 534 kts 139°
2026-05-07 05:22 21.28511 80.83296 34920 ft 534 kts 139°
2026-05-07 05:23 21.23319 80.89000 34915 ft 534 kts 139°
2026-05-07 05:23 21.18128 80.94699 34911 ft 533 kts 139°
2026-05-07 05:24 21.13011 81.00307 34912 ft 533 kts 139°
2026-05-07 05:24 21.07824 81.05983 34914 ft 532 kts 139°
2026-05-07 05:25 21.02671 81.11618 34914 ft 532 kts 139°
2026-05-07 05:25 20.97498 81.17268 34915 ft 531 kts 139°
2026-05-07 05:26 20.92325 81.22915 34914 ft 531 kts 139°
2026-05-07 05:26 20.87152 81.28556 34909 ft 530 kts 139°
2026-05-07 05:27 20.82003 81.34165 34915 ft 527 kts 139°
2026-05-07 05:27 20.76906 81.39732 34912 ft 526 kts 138°
2026-05-07 05:28 20.71830 81.45371 34918 ft 524 kts 138°
2026-05-07 05:28 20.66785 81.50992 34920 ft 524 kts 138°
2026-05-07 05:29 20.61736 81.56597 34922 ft 524 kts 138°
2026-05-07 05:29 20.56683 81.62193 34924 ft 523 kts 138°
2026-05-07 05:30 20.51664 81.67745 34926 ft 523 kts 138°
2026-05-07 05:30 20.46618 81.73322 34930 ft 522 kts 138°
2026-05-07 05:31 20.41572 81.78893 34930 ft 522 kts 138°
2026-05-07 05:31 20.36528 81.84458 34935 ft 522 kts 138°
2026-05-07 05:32 20.31477 81.90025 34942 ft 522 kts 138°
2026-05-07 05:32 20.26434 81.95579 34941 ft 521 kts 138°
2026-05-07 05:33 20.21499 82.01010 34936 ft 519 kts 138°
2026-05-07 05:33 20.16510 82.06547 34940 ft 517 kts 138°
2026-05-07 05:34 20.11546 82.12076 34947 ft 516 kts 138°
2026-05-07 05:34 20.06586 82.17593 34948 ft 515 kts 138°
2026-05-07 05:35 20.01627 82.23096 34956 ft 515 kts 138°
2026-05-07 05:35 19.96671 82.28588 34943 ft 515 kts 138°
2026-05-07 05:36 19.91739 82.34050 34950 ft 514 kts 138°
2026-05-07 05:36 19.86783 82.39533 34961 ft 514 kts 138°
2026-05-07 05:37 19.81819 82.45019 34951 ft 514 kts 138°
2026-05-07 05:37 19.76862 82.50493 34954 ft 514 kts 138°
2026-05-07 05:38 19.71899 82.55967 34954 ft 514 kts 138°
2026-05-07 05:38 19.66935 82.61437 34936 ft 514 kts 138°
2026-05-07 05:39 19.62005 82.66866 34946 ft 513 kts 138°
2026-05-07 05:39 19.57051 82.72318 34949 ft 513 kts 138°
2026-05-07 05:40 19.52091 82.77770 34947 ft 513 kts 138°
2026-05-07 05:40 19.47134 82.83211 34956 ft 513 kts 138°
2026-05-07 05:41 19.43017 82.87727 34957 ft 513 kts 138°
2026-05-07 05:41 19.37242 82.94058 34964 ft 513 kts 138°
2026-05-07 05:42 19.32282 82.99487 34950 ft 513 kts 137°
2026-05-07 05:42 19.28231 83.03918 34958 ft 513 kts 138°
2026-05-07 05:43 19.23263 83.09349 34978 ft 513 kts 138°
2026-05-07 05:43 19.18288 83.14784 34963 ft 513 kts 138°
2026-05-07 05:44 19.13314 83.20211 34961 ft 513 kts 138°
2026-05-07 05:44 19.08360 83.25611 34963 ft 514 kts 138°
2026-05-07 05:45 19.03380 83.31038 34937 ft 514 kts 138°
2026-05-07 05:45 18.98403 83.36455 34935 ft 513 kts 138°
2026-05-07 05:46 18.93414 83.41864 34938 ft 512 kts 138°
2026-05-07 05:46 18.88737 83.46923 34934 ft 511 kts 138°
2026-05-07 05:47 18.83805 83.52261 34918 ft 511 kts 138°
2026-05-07 05:47 18.78838 83.57636 34919 ft 511 kts 138°
2026-05-07 05:48 18.73869 83.63007 34915 ft 511 kts 138°
2026-05-07 05:48 18.68888 83.68385 34914 ft 512 kts 138°
2026-05-07 05:49 18.63901 83.73764 34900 ft 512 kts 138°
2026-05-07 05:49 18.58956 83.79094 34898 ft 512 kts 138°
2026-05-07 05:50 18.53963 83.84472 34894 ft 512 kts 138°
2026-05-07 05:50 18.48965 83.89850 34887 ft 512 kts 138°
2026-05-07 05:51 18.44014 83.95173 34893 ft 511 kts 138°
2026-05-07 05:51 18.39106 84.00446 34891 ft 511 kts 138°
2026-05-07 05:52 18.34130 84.05788 34882 ft 511 kts 138°
2026-05-07 05:52 18.29158 84.11120 34886 ft 510 kts 138°
2026-05-07 05:53 18.24180 84.16420 34887 ft 509 kts 139°
2026-05-07 05:53 18.19186 84.21706 34885 ft 508 kts 139°
2026-05-07 05:54 18.14198 84.26985 34885 ft 508 kts 139°
2026-05-07 05:54 18.09246 84.32229 34885 ft 508 kts 139°
2026-05-07 05:55 18.04265 84.37501 34893 ft 508 kts 139°
2026-05-07 05:55 17.99377 84.42669 34883 ft 508 kts 138°
2026-05-07 05:56 17.94418 84.47909 34891 ft 508 kts 138°
2026-05-07 05:56 17.89434 84.53171 34892 ft 508 kts 138°
2026-05-07 05:57 17.84449 84.58429 34888 ft 507 kts 138°
2026-05-07 05:57 17.79465 84.63681 34891 ft 507 kts 138°
2026-05-07 05:58 17.74484 84.68927 34890 ft 507 kts 138°
2026-05-07 05:58 17.69532 84.74139 34888 ft 507 kts 138°
2026-05-07 05:59 17.64560 84.79390 34884 ft 507 kts 137°
2026-05-07 05:59 17.59640 84.84684 34888 ft 506 kts 137°
2026-05-07 06:00 17.54801 84.89904 34893 ft 506 kts 137°
2026-05-07 06:00 17.49887 84.95187 34891 ft 506 kts 137°
2026-05-07 06:01 17.45024 85.00403 34894 ft 506 kts 137°
2026-05-07 06:01 17.40135 85.05641 34890 ft 506 kts 137°
2026-05-07 06:02 17.35218 85.10907 34890 ft 506 kts 137°
2026-05-07 06:02 17.30299 85.16171 34891 ft 505 kts 137°
2026-05-07 06:03 17.25376 85.21436 34889 ft 505 kts 137°
2026-05-07 06:03 17.20462 85.26687 34892 ft 504 kts 137°
2026-05-07 06:04 17.15560 85.31939 34893 ft 505 kts 136°
2026-05-07 06:04 17.10808 85.37305 34891 ft 505 kts 135°
2026-05-07 06:05 17.06082 85.42753 34882 ft 505 kts 135°
2026-05-07 06:05 17.01345 85.48184 34886 ft 505 kts 135°
2026-05-07 06:06 16.96598 85.53589 34890 ft 504 kts 135°
2026-05-07 06:06 16.91846 85.58983 34889 ft 504 kts 135°
2026-05-07 06:07 16.87097 85.64370 34875 ft 504 kts 135°
2026-05-07 06:07 16.82376 85.69724 34870 ft 504 kts 135°
2026-05-07 06:08 16.77626 85.75105 34887 ft 503 kts 135°
2026-05-07 06:08 16.72881 85.80478 34887 ft 503 kts 135°
2026-05-07 06:09 16.68134 85.85849 34886 ft 503 kts 136°
2026-05-07 06:09 16.63388 85.91214 34883 ft 503 kts 135°
2026-05-07 06:10 16.58642 85.96576 34880 ft 503 kts 135°
2026-05-07 06:10 16.53953 86.01867 34879 ft 503 kts 135°
2026-05-07 06:11 16.49230 86.07194 34881 ft 502 kts 135°
2026-05-07 06:11 16.44490 86.12537 34882 ft 502 kts 135°
2026-05-07 06:12 16.39747 86.17877 34879 ft 502 kts 135°
2026-05-07 06:12 16.35000 86.23219 34876 ft 502 kts 135°
2026-05-07 06:13 16.30257 86.28551 34873 ft 502 kts 135°
2026-05-07 06:13 16.25518 86.33875 34877 ft 501 kts 135°
2026-05-07 06:14 16.20812 86.39159 34880 ft 500 kts 135°
2026-05-07 06:14 16.16080 86.44468 34872 ft 500 kts 135°
2026-05-07 06:15 16.11347 86.49773 34876 ft 499 kts 135°
2026-05-07 06:15 16.06620 86.55068 34877 ft 499 kts 135°
2026-05-07 06:16 16.01890 86.60362 34878 ft 499 kts 135°
2026-05-07 06:16 15.97168 86.65642 34873 ft 499 kts 135°
2026-05-07 06:17 15.92475 86.70887 34876 ft 498 kts 135°
2026-05-07 06:17 15.87759 86.76155 34870 ft 497 kts 135°
2026-05-07 06:18 15.83055 86.81404 34869 ft 496 kts 135°
2026-05-07 06:18 15.78345 86.86657 34872 ft 496 kts 135°
2026-05-07 06:19 15.73636 86.91904 34874 ft 496 kts 135°
2026-05-07 06:19 15.68928 86.97147 34874 ft 495 kts 135°
2026-05-07 06:20 15.64322 87.02272 34874 ft 494 kts 135°
2026-05-07 06:20 15.59631 87.07489 34858 ft 493 kts 135°
2026-05-07 06:21 15.54954 87.12685 34866 ft 492 kts 135°
2026-05-07 06:21 15.50278 87.17877 34866 ft 492 kts 135°
2026-05-07 06:22 15.45627 87.23039 34865 ft 493 kts 135°
2026-05-07 06:22 15.38595 87.30834 34867 ft 493 kts 135°
2026-05-07 06:23 15.33897 87.36040 34862 ft 494 kts 135°
2026-05-07 06:23 15.29196 87.41246 34868 ft 495 kts 135°
2026-05-07 06:24 15.24529 87.46453 34866 ft 496 kts 134°
2026-05-07 06:24 15.19918 87.51794 34867 ft 497 kts 133°
2026-05-07 06:25 15.15328 87.57155 34865 ft 498 kts 134°
2026-05-07 06:25 15.10760 87.62463 34866 ft 498 kts 134°
2026-05-07 06:26 15.06144 87.67805 34866 ft 497 kts 134°
2026-05-07 06:26 15.01602 87.73052 34859 ft 498 kts 134°
2026-05-07 06:27 14.97005 87.78358 34867 ft 498 kts 134°
2026-05-07 06:27 14.92379 87.83694 34867 ft 498 kts 133°
2026-05-07 06:28 14.87751 87.89030 34863 ft 498 kts 133°
2026-05-07 06:28 14.83123 87.94364 34862 ft 498 kts 133°
2026-05-07 06:29 14.78484 87.99707 34863 ft 497 kts 133°
2026-05-07 06:29 14.73951 88.04923 34860 ft 497 kts 133°
2026-05-07 06:30 14.69330 88.10237 34861 ft 496 kts 134°
2026-05-07 06:30 14.65488 88.14653 34860 ft 496 kts 134°
2026-05-07 06:31 14.60872 88.19955 34857 ft 495 kts 134°
2026-05-07 06:31 14.56257 88.25251 34855 ft 495 kts 133°
2026-05-07 06:32 14.51648 88.30538 34858 ft 495 kts 133°
2026-05-07 06:32 14.47058 88.35797 35088 ft 497 kts 133°
2026-05-07 06:33 14.44744 88.38449 35428 ft 495 kts 133°
2026-05-07 06:33 14.42447 88.41081 35783 ft 492 kts 133°
2026-05-07 06:33 14.40158 88.43702 36131 ft 490 kts 133°
2026-05-07 06:33 14.37876 88.46313 36460 ft 489 kts 133°
2026-05-07 06:34 14.35599 88.48918 36738 ft 489 kts 133°
2026-05-07 06:34 14.33331 88.51511 36795 ft 491 kts 133°
2026-05-07 06:34 14.28764 88.56731 36850 ft 490 kts 133°
2026-05-07 06:35 14.24238 88.61902 36858 ft 487 kts 133°
2026-05-07 06:35 14.19803 88.66967 36853 ft 485 kts 133°
2026-05-07 06:36 14.15275 88.72133 36860 ft 485 kts 133°
2026-05-07 06:36 14.10749 88.77293 36860 ft 486 kts 133°
2026-05-07 06:37 14.06210 88.82465 36859 ft 487 kts 133°
2026-05-07 06:37 14.01687 88.87615 36865 ft 488 kts 133°
2026-05-07 06:38 13.97125 88.92807 36861 ft 489 kts 133°
2026-05-07 06:38 13.92557 88.98002 36854 ft 489 kts 133°
2026-05-07 06:39 13.88122 89.03043 36855 ft 489 kts 133°
2026-05-07 06:39 13.83553 89.08233 36855 ft 489 kts 133°
2026-05-07 06:40 13.79015 89.13384 36854 ft 488 kts 133°
2026-05-07 06:40 13.74457 89.18556 36850 ft 487 kts 133°
2026-05-07 06:41 13.69901 89.23721 36857 ft 487 kts 133°
2026-05-07 06:41 13.65351 89.28877 36853 ft 486 kts 133°
2026-05-07 06:42 13.60812 89.34016 36845 ft 485 kts 133°
2026-05-07 06:42 13.56276 89.39149 36850 ft 484 kts 133°
2026-05-07 06:43 13.51774 89.44241 36848 ft 484 kts 133°
2026-05-07 06:43 13.47239 89.49367 36857 ft 483 kts 133°
2026-05-07 06:44 13.42788 89.54394 36854 ft 483 kts 133°
2026-05-07 06:44 13.38259 89.59509 36846 ft 484 kts 133°
2026-05-07 06:45 13.33757 89.64589 36851 ft 484 kts 133°
2026-05-07 06:45 13.29216 89.69709 36847 ft 484 kts 133°
2026-05-07 06:46 13.24674 89.74826 36845 ft 484 kts 133°
2026-05-07 06:46 13.20131 89.79942 36850 ft 484 kts 133°
2026-05-07 06:47 13.15614 89.85026 36845 ft 484 kts 133°
2026-05-07 06:47 13.11061 89.90147 36856 ft 484 kts 133°
2026-05-07 06:48 13.06515 89.95259 36849 ft 483 kts 133°
2026-05-07 06:48 13.02140 90.00173 36843 ft 483 kts 133°
2026-05-07 06:49 12.97629 90.05240 36844 ft 482 kts 133°
2026-05-07 06:49 12.93095 90.10328 36840 ft 482 kts 133°
2026-05-07 06:50 12.88572 90.15401 36842 ft 482 kts 133°
2026-05-07 06:50 12.84044 90.20476 36848 ft 482 kts 133°
2026-05-07 06:51 12.79547 90.25515 36841 ft 482 kts 133°
2026-05-07 06:51 12.75012 90.30593 36845 ft 483 kts 133°
2026-05-07 06:52 12.70477 90.35668 36843 ft 483 kts 133°
2026-05-07 06:52 12.65937 90.40745 36838 ft 483 kts 133°
2026-05-07 06:53 12.61398 90.45819 36843 ft 483 kts 133°
2026-05-07 06:53 12.56855 90.50894 36840 ft 483 kts 133°
2026-05-07 06:54 12.52307 90.55972 36839 ft 483 kts 133°
2026-05-07 06:54 12.47795 90.61007 36843 ft 483 kts 133°
2026-05-07 06:55 12.43245 90.66081 36839 ft 483 kts 133°
2026-05-07 06:55 12.38706 90.71141 36840 ft 483 kts 133°
2026-05-07 06:56 12.34159 90.76206 36847 ft 483 kts 133°
2026-05-07 06:56 12.29610 90.81270 36835 ft 483 kts 132°
2026-05-07 06:57 12.25099 90.86293 36838 ft 482 kts 132°
2026-05-07 06:57 12.20558 90.91343 36839 ft 482 kts 132°
2026-05-07 06:58 12.16011 90.96398 36834 ft 482 kts 132°
2026-05-07 06:58 12.11545 91.01359 36838 ft 482 kts 132°
2026-05-07 06:59 12.07006 91.06400 36834 ft 482 kts 132°
2026-05-07 06:59 12.02468 91.11437 36830 ft 482 kts 132°
2026-05-07 07:00 11.97923 91.16479 36838 ft 482 kts 132°
2026-05-07 07:00 11.93409 91.21486 36832 ft 482 kts 132°
2026-05-07 07:01 11.88933 91.26448 36831 ft 482 kts 132°
2026-05-07 07:01 11.84332 91.31427 36828 ft 482 kts 134°
2026-05-07 07:02 11.79554 91.36179 36830 ft 481 kts 135°
2026-05-07 07:02 11.74711 91.40932 36831 ft 481 kts 135°
2026-05-07 07:03 11.69902 91.45686 36830 ft 481 kts 135°
2026-05-07 07:03 11.65130 91.50423 36830 ft 481 kts 135°
2026-05-07 07:04 11.60331 91.55188 36836 ft 481 kts 135°
2026-05-07 07:04 11.55536 91.59944 36828 ft 481 kts 135°
2026-05-07 07:05 11.50736 91.64704 36827 ft 480 kts 135°
2026-05-07 07:05 11.45945 91.69452 36827 ft 479 kts 135°
2026-05-07 07:06 11.41161 91.74192 36827 ft 479 kts 135°
2026-05-07 07:06 11.36411 91.78894 36827 ft 479 kts 135°
2026-05-07 07:07 11.31456 91.83444 36838 ft 479 kts 138°
2026-05-07 07:07 11.26403 91.87858 36831 ft 481 kts 139°
2026-05-07 07:08 11.21307 91.92305 36835 ft 483 kts 139°
2026-05-07 07:08 11.16197 91.96791 36834 ft 484 kts 138°
2026-05-07 07:09 11.11191 92.01199 36831 ft 485 kts 138°
2026-05-07 07:09 11.06074 92.05707 36827 ft 486 kts 138°
2026-05-07 07:10 11.00946 92.10219 36824 ft 486 kts 138°
2026-05-07 07:10 10.95867 92.14685 36824 ft 485 kts 138°
2026-05-07 07:11 10.90751 92.19182 36815 ft 485 kts 139°
2026-05-07 07:11 10.85644 92.23669 36833 ft 485 kts 139°
2026-05-07 07:12 10.80531 92.28158 36834 ft 484 kts 139°
2026-05-07 07:12 10.75428 92.32637 36827 ft 484 kts 139°
2026-05-07 07:13 10.70340 92.37102 36831 ft 483 kts 139°
2026-05-07 07:13 10.65286 92.41534 36835 ft 482 kts 139°
2026-05-07 07:14 10.60198 92.45994 36833 ft 482 kts 139°
2026-05-07 07:14 10.55128 92.50436 36827 ft 482 kts 139°
2026-05-07 07:15 10.50042 92.54890 36822 ft 482 kts 139°
2026-05-07 07:15 10.44952 92.59345 36843 ft 483 kts 139°
2026-05-07 07:16 10.39855 92.63804 36831 ft 484 kts 139°
2026-05-07 07:16 10.34780 92.68242 36832 ft 483 kts 138°
2026-05-07 07:17 10.29693 92.72689 36814 ft 481 kts 138°
2026-05-07 07:17 10.24635 92.77109 36816 ft 478 kts 138°
2026-05-07 07:18 10.19641 92.81470 36814 ft 475 kts 138°
2026-05-07 07:18 10.14636 92.85839 36837 ft 474 kts 138°
2026-05-07 07:19 10.10478 92.89469 36835 ft 473 kts 138°
2026-05-07 07:19 10.05496 92.93814 36819 ft 473 kts 138°
2026-05-07 07:20 10.00494 92.98176 36835 ft 474 kts 138°
2026-05-07 07:20 9.95580 93.02460 36833 ft 475 kts 138°
2026-05-07 07:21 9.90560 93.06833 36812 ft 477 kts 138°
2026-05-07 07:21 9.85521 93.11222 36834 ft 478 kts 138°
2026-05-07 07:22 9.80459 93.15628 36836 ft 480 kts 138°
2026-05-07 07:22 9.75382 93.20046 36836 ft 481 kts 138°
2026-05-07 07:23 9.70304 93.24463 36820 ft 481 kts 138°
2026-05-07 07:23 9.65217 93.28885 36818 ft 482 kts 138°
2026-05-07 07:24 9.60162 93.33279 36818 ft 481 kts 138°
2026-05-07 07:24 9.55080 93.37693 36840 ft 481 kts 138°
2026-05-07 07:25 9.47462 93.44308 36833 ft 480 kts 138°
2026-05-07 07:26 9.42388 93.48712 36839 ft 480 kts 138°
2026-05-07 07:26 9.37320 93.53108 36829 ft 479 kts 138°
2026-05-07 07:27 9.32250 93.57504 36825 ft 479 kts 138°
2026-05-07 07:27 9.27215 93.61869 36821 ft 479 kts 138°
2026-05-07 07:28 9.22153 93.66255 36829 ft 479 kts 138°
2026-05-07 07:28 9.17089 93.70641 36827 ft 479 kts 138°
2026-05-07 07:29 9.12023 93.75028 36823 ft 479 kts 138°
2026-05-07 07:29 9.06986 93.79387 36821 ft 479 kts 138°
2026-05-07 07:30 9.01928 93.83765 36828 ft 479 kts 138°
2026-05-07 07:30 8.96872 93.88138 36833 ft 478 kts 138°
2026-05-07 07:31 8.91816 93.92511 36832 ft 478 kts 138°
2026-05-07 07:31 8.86772 93.96882 36829 ft 477 kts 136°
2026-05-07 07:32 8.82397 94.01676 36846 ft 475 kts 127°
2026-05-07 07:32 8.78765 94.07190 36830 ft 474 kts 121°
2026-05-07 07:33 8.75307 94.12883 36830 ft 474 kts 121°
2026-05-07 07:33 8.71830 94.18558 36827 ft 475 kts 121°
2026-05-07 07:34 8.68329 94.24218 36833 ft 476 kts 121°
2026-05-07 07:34 8.64812 94.29894 36833 ft 476 kts 121°
2026-05-07 07:35 8.61306 94.35554 36831 ft 477 kts 121°
2026-05-07 07:35 8.57787 94.41242 36832 ft 478 kts 120°
2026-05-07 07:36 8.54591 94.47124 36831 ft 477 kts 117°
2026-05-07 07:36 8.51518 94.53079 36831 ft 477 kts 117°
2026-05-07 07:37 8.48441 94.59026 36829 ft 477 kts 117°
2026-05-07 07:37 8.45350 94.64956 36842 ft 477 kts 117°
2026-05-07 07:38 8.42251 94.70881 36839 ft 477 kts 117°
2026-05-07 07:38 8.39148 94.76810 36838 ft 477 kts 117°
2026-05-07 07:39 8.36066 94.82701 36833 ft 477 kts 117°
2026-05-07 07:39 8.32966 94.88623 36838 ft 477 kts 117°
2026-05-07 07:40 8.29860 94.94551 36827 ft 477 kts 117°
2026-05-07 07:40 8.26799 95.00396 36826 ft 477 kts 117°
2026-05-07 07:41 8.23689 95.06328 36849 ft 478 kts 117°
2026-05-07 07:41 8.20597 95.12226 36830 ft 478 kts 117°
2026-05-07 07:42 8.17481 95.18165 36839 ft 479 kts 117°
2026-05-07 07:42 8.14358 95.24116 36831 ft 479 kts 117°
2026-05-07 07:43 8.11238 95.30058 36828 ft 479 kts 117°
2026-05-07 07:43 8.08113 95.36009 36826 ft 480 kts 117°
2026-05-07 07:44 8.05004 95.41926 36828 ft 480 kts 117°
2026-05-07 07:44 8.01872 95.47886 36831 ft 481 kts 117°
2026-05-07 07:45 7.98734 95.53843 36832 ft 481 kts 117°
2026-05-07 07:45 7.95582 95.59803 36829 ft 481 kts 117°
2026-05-07 07:46 7.92430 95.65759 36837 ft 481 kts 117°
2026-05-07 07:46 7.89274 95.71726 36828 ft 481 kts 117°
2026-05-07 07:47 7.86118 95.77693 36839 ft 481 kts 117°
2026-05-07 07:47 7.82985 95.83615 36825 ft 482 kts 117°
2026-05-07 07:48 7.79827 95.89579 36844 ft 482 kts 117°
2026-05-07 07:48 7.76669 95.95544 36828 ft 482 kts 117°
2026-05-07 07:49 7.73545 96.01439 36824 ft 482 kts 117°
2026-05-07 07:49 7.70384 96.07404 36843 ft 482 kts 117°
2026-05-07 07:50 7.67237 96.13338 36829 ft 482 kts 118°
2026-05-07 07:50 7.64067 96.19313 36832 ft 482 kts 118°
2026-05-07 07:51 7.60897 96.25286 36826 ft 483 kts 118°
2026-05-07 07:51 7.57745 96.31224 36825 ft 483 kts 118°
2026-05-07 07:52 7.54572 96.37199 36840 ft 483 kts 118°
2026-05-07 07:52 7.51401 96.43167 36829 ft 482 kts 118°
2026-05-07 07:53 7.48239 96.49116 36830 ft 481 kts 118°
2026-05-07 07:53 7.45080 96.55057 36841 ft 481 kts 118°
2026-05-07 07:54 7.41915 96.61007 36826 ft 481 kts 118°
2026-05-07 07:54 7.38773 96.66913 36820 ft 481 kts 118°
2026-05-07 07:55 7.35608 96.72860 36822 ft 481 kts 118°
2026-05-07 07:55 7.32439 96.78812 36824 ft 481 kts 118°
2026-05-07 07:56 7.29300 96.84717 36822 ft 481 kts 117°
2026-05-07 07:56 7.26786 96.90962 36826 ft 481 kts 106°
2026-05-07 07:57 7.25162 96.97500 36817 ft 481 kts 103°
2026-05-07 07:57 7.23632 97.03960 36826 ft 481 kts 104°
2026-05-07 07:58 7.22051 97.10515 36816 ft 481 kts 104°
2026-05-07 07:58 7.20446 97.17067 36826 ft 481 kts 104°
2026-05-07 07:59 7.18836 97.23611 36823 ft 481 kts 104°
2026-05-07 07:59 7.17226 97.30158 36826 ft 481 kts 104°
2026-05-07 08:00 7.15627 97.36658 36826 ft 481 kts 104°
2026-05-07 08:00 7.14015 97.43209 36833 ft 482 kts 104°
2026-05-07 08:01 7.12401 97.49764 36823 ft 483 kts 104°
2026-05-07 08:01 7.10783 97.56330 36826 ft 483 kts 104°
2026-05-07 08:02 7.09161 97.62908 36827 ft 484 kts 104°
2026-05-07 08:02 7.07538 97.69488 36816 ft 484 kts 104°
2026-05-07 08:03 7.05922 97.76032 36812 ft 484 kts 104°
2026-05-07 08:03 7.04296 97.82615 36813 ft 484 kts 104°
2026-05-07 08:04 7.02670 97.89197 36822 ft 484 kts 104°
2026-05-07 08:04 7.01319 97.94665 36810 ft 484 kts 104°
2026-05-07 08:05 6.99282 98.02158 36819 ft 484 kts 110°
2026-05-07 08:05 6.97327 98.07486 36806 ft 484 kts 111°
2026-05-07 08:06 6.94953 98.13790 36825 ft 485 kts 110°
2026-05-07 08:06 6.92580 98.20156 36811 ft 485 kts 110°
2026-05-07 08:07 6.90230 98.26528 36804 ft 486 kts 110°
2026-05-07 08:07 6.87881 98.32913 36806 ft 486 kts 110°
2026-05-07 08:08 6.85531 98.39296 36815 ft 487 kts 110°
2026-05-07 08:08 6.83188 98.45653 36820 ft 487 kts 110°
2026-05-07 08:09 6.80826 98.52056 36813 ft 488 kts 110°
2026-05-07 08:09 6.78458 98.58473 36812 ft 488 kts 110°
2026-05-07 08:10 6.76092 98.64884 36809 ft 488 kts 110°
2026-05-07 08:10 6.73741 98.71253 36803 ft 488 kts 110°
2026-05-07 08:11 6.71378 98.77647 36803 ft 488 kts 110°
2026-05-07 08:11 6.69009 98.84056 36809 ft 488 kts 110°
2026-05-07 08:12 6.66641 98.90462 36815 ft 488 kts 110°
2026-05-07 08:12 6.64271 98.96868 36804 ft 489 kts 110°
2026-05-07 08:13 6.61929 99.03195 36804 ft 489 kts 110°
2026-05-07 08:13 6.59554 99.09611 36806 ft 489 kts 110°
2026-05-07 08:14 6.57179 99.16023 36820 ft 489 kts 110°
2026-05-07 08:14 6.54800 99.22445 36819 ft 490 kts 110°
2026-05-07 08:15 6.52433 99.28832 36804 ft 491 kts 110°
2026-05-07 08:15 6.50047 99.35267 36805 ft 491 kts 110°
2026-05-07 08:16 6.47646 99.41710 36811 ft 491 kts 110°
2026-05-07 08:16 6.45245 99.48135 36793 ft 491 kts 110°
2026-05-07 08:17 6.42840 99.54575 36805 ft 491 kts 110°
2026-05-07 08:17 6.40441 99.61003 36778 ft 491 kts 110°
2026-05-07 08:18 6.38038 99.67439 36773 ft 491 kts 110°
2026-05-07 08:18 6.35209 99.73631 36786 ft 491 kts 121°
2026-05-07 08:19 6.31072 99.79125 36811 ft 490 kts 133°
2026-05-07 08:19 6.26292 99.83969 36793 ft 490 kts 135°
2026-05-07 08:20 6.21476 99.88818 36795 ft 490 kts 134°
2026-05-07 08:20 6.16702 99.93717 36812 ft 490 kts 134°
2026-05-07 08:21 6.11970 99.98592 36801 ft 490 kts 134°
2026-05-07 08:21 6.07253 100.03427 36797 ft 490 kts 134°
2026-05-07 08:22 6.02456 100.08321 36780 ft 491 kts 134°
2026-05-07 08:22 5.97708 100.13167 36802 ft 491 kts 134°
2026-05-07 08:23 5.92922 100.18055 36811 ft 491 kts 134°
2026-05-07 08:23 5.88126 100.22953 36801 ft 491 kts 134°
2026-05-07 08:24 5.83330 100.27850 36789 ft 492 kts 134°
2026-05-07 08:24 5.78528 100.32753 36790 ft 492 kts 134°
2026-05-07 08:25 5.73720 100.37660 36808 ft 492 kts 134°
2026-05-07 08:25 5.68917 100.42560 36811 ft 492 kts 134°
2026-05-07 08:26 5.61744 100.49876 36794 ft 492 kts 134°
2026-05-07 08:26 5.56948 100.54766 36780 ft 491 kts 134°
2026-05-07 08:27 5.52176 100.59631 36796 ft 490 kts 134°
2026-05-07 08:27 5.47393 100.64508 36781 ft 489 kts 133°
2026-05-07 08:28 5.42623 100.69371 36806 ft 488 kts 133°
2026-05-07 08:28 5.37471 100.73742 36834 ft 487 kts 149°
2026-05-07 08:29 5.31134 100.76120 36814 ft 489 kts 169°
2026-05-07 08:29 5.24386 100.77117 36828 ft 491 kts 171°
2026-05-07 08:30 5.17623 100.78067 36834 ft 494 kts 171°
2026-05-07 08:30 5.10810 100.79112 36813 ft 496 kts 170°
2026-05-07 08:31 5.03949 100.80197 36816 ft 498 kts 169°
2026-05-07 08:31 4.97152 100.81266 36816 ft 499 kts 170°
2026-05-07 08:32 4.90289 100.82348 36812 ft 499 kts 169°
2026-05-07 08:32 4.83432 100.83438 36802 ft 498 kts 170°
2026-05-07 08:33 4.76578 100.84528 36796 ft 497 kts 170°
2026-05-07 08:33 4.69744 100.85614 36807 ft 496 kts 170°
2026-05-07 08:34 4.62964 100.86690 36779 ft 496 kts 169°
2026-05-07 08:34 4.56153 100.87772 36795 ft 495 kts 170°
2026-05-07 08:35 4.49342 100.88884 36787 ft 494 kts 167°
2026-05-07 08:35 4.42796 100.90871 36780 ft 490 kts 156°
2026-05-07 08:36 4.36647 100.93804 36786 ft 489 kts 152°
2026-05-07 08:36 4.30604 100.96816 36797 ft 488 kts 152°
2026-05-07 08:37 4.24512 100.99817 36781 ft 488 kts 153°
2026-05-07 08:37 4.18490 101.02753 36783 ft 488 kts 153°
2026-05-07 08:38 4.12372 101.05730 36785 ft 488 kts 153°
2026-05-07 08:38 4.06291 101.08689 36800 ft 489 kts 153°
2026-05-07 08:39 4.00164 101.11672 36775 ft 489 kts 153°
2026-05-07 08:39 3.94035 101.14656 36780 ft 490 kts 153°
2026-05-07 08:40 3.87892 101.17648 36794 ft 490 kts 153°
2026-05-07 08:40 3.81747 101.20639 36793 ft 491 kts 153°
2026-05-07 08:41 3.75647 101.23616 36783 ft 491 kts 152°
2026-05-07 08:41 3.69567 101.26756 36767 ft 491 kts 151°
2026-05-07 08:42 3.63523 101.29942 36769 ft 491 kts 151°
2026-05-07 08:42 3.57470 101.33109 36763 ft 491 kts 151°
2026-05-07 08:43 3.51439 101.36246 36770 ft 491 kts 152°
2026-05-07 08:43 3.45368 101.39403 36765 ft 491 kts 151°
2026-05-07 08:44 3.39299 101.42561 36775 ft 492 kts 151°
2026-05-07 08:44 3.33208 101.45729 36762 ft 492 kts 151°
2026-05-07 08:45 3.27048 101.48737 36748 ft 494 kts 154°
2026-05-07 08:45 3.20819 101.51538 36738 ft 494 kts 155°
2026-05-07 08:46 3.14538 101.54378 36752 ft 495 kts 154°
2026-05-07 08:46 3.08272 101.57257 36753 ft 495 kts 154°
2026-05-07 08:47 3.02004 101.60151 36738 ft 495 kts 154°
2026-05-07 08:47 2.95792 101.63017 36745 ft 495 kts 154°
2026-05-07 08:48 2.89538 101.65900 36765 ft 495 kts 154°
2026-05-07 08:48 2.83277 101.68785 36770 ft 494 kts 154°
2026-05-07 08:49 2.77027 101.71666 36709 ft 493 kts 154°
2026-05-07 08:49 2.70794 101.74550 36720 ft 492 kts 153°
2026-05-07 08:50 2.64669 101.77545 36732 ft 491 kts 153°
2026-05-07 08:50 2.58539 101.80552 36732 ft 491 kts 152°
2026-05-07 08:51 2.52968 101.84443 36764 ft 488 kts 136°
2026-05-07 08:51 2.48522 101.89535 36778 ft 486 kts 126°
2026-05-07 08:52 2.44535 101.94953 36777 ft 487 kts 125°
2026-05-07 08:52 2.40576 102.00318 36758 ft 488 kts 126°
2026-05-07 08:53 2.36501 102.05764 36756 ft 489 kts 126°
2026-05-07 08:53 2.32410 102.11196 36755 ft 488 kts 126°
2026-05-07 08:54 2.29011 102.15707 36764 ft 488 kts 126°
2026-05-07 08:54 2.24928 102.21131 36766 ft 487 kts 126°
2026-05-07 08:55 2.20867 102.26527 36768 ft 487 kts 126°
2026-05-07 08:55 2.16791 102.31943 36768 ft 487 kts 126°
2026-05-07 08:56 2.12704 102.37374 36771 ft 488 kts 126°
2026-05-07 08:56 2.08641 102.42772 36780 ft 488 kts 126°
2026-05-07 08:57 2.04547 102.48211 36760 ft 489 kts 126°
2026-05-07 08:57 2.01297 102.52528 36778 ft 489 kts 126°
2026-05-07 08:58 1.97937 102.56990 36764 ft 490 kts 126°
2026-05-07 08:58 1.93834 102.62440 36780 ft 490 kts 126°
2026-05-07 08:59 1.89723 102.67904 36237 ft 496 kts 126°
2026-05-07 08:59 1.87645 102.70666 35541 ft 497 kts 126°
2026-05-07 08:59 1.85561 102.73435 34620 ft 500 kts 126°
2026-05-07 09:00 1.83486 102.76192 33706 ft 492 kts 126°
2026-05-07 09:00 1.81477 102.78862 32698 ft 483 kts 126°
2026-05-07 09:00 1.79475 102.81523 31747 ft 469 kts 126°
2026-05-07 09:00 1.77531 102.84105 30848 ft 466 kts 126°
2026-05-07 09:01 1.75568 102.86715 30136 ft 473 kts 126°
2026-05-07 09:01 1.73623 102.89420 29386 ft 485 kts 122°
2026-05-07 09:01 1.71899 102.92356 28654 ft 489 kts 117°
2026-05-07 09:01 1.70346 102.95312 27964 ft 482 kts 117°
2026-05-07 09:02 1.69132 102.97652 27410 ft 468 kts 117°
2026-05-07 09:02 1.67662 103.00457 26789 ft 452 kts 117°
2026-05-07 09:02 1.66514 103.02626 26301 ft 440 kts 117°
2026-05-07 09:02 1.65096 103.05282 25720 ft 427 kts 117°
2026-05-07 09:03 1.63686 103.07856 25181 ft 419 kts 121°
2026-05-07 09:03 1.61971 103.10044 24568 ft 423 kts 135°
2026-05-07 09:03 1.59647 103.11901 24013 ft 436 kts 146°
2026-05-07 09:03 1.56924 103.13377 23406 ft 452 kts 155°
2026-05-07 09:04 1.54024 103.14581 22665 ft 447 kts 156°
2026-05-07 09:04 1.51177 103.15719 22026 ft 432 kts 156°
2026-05-07 09:04 1.48429 103.16818 21423 ft 417 kts 156°
2026-05-07 09:04 1.45782 103.17891 20867 ft 404 kts 156°
2026-05-07 09:05 1.43216 103.18944 20339 ft 395 kts 156°
2026-05-07 09:05 1.40680 103.19996 19831 ft 405 kts 156°
2026-05-07 09:05 1.38021 103.21105 19268 ft 422 kts 156°
2026-05-07 09:05 1.35251 103.22259 18668 ft 427 kts 156°
2026-05-07 09:06 1.32544 103.23386 18076 ft 427 kts 156°
2026-05-07 09:06 1.29810 103.24523 17413 ft 424 kts 156°
2026-05-07 09:06 1.27090 103.25653 16806 ft 421 kts 156°
2026-05-07 09:06 1.24401 103.26789 16253 ft 416 kts 154°
2026-05-07 09:07 1.21859 103.28105 15828 ft 407 kts 149°
2026-05-07 09:07 1.19462 103.29521 15393 ft 389 kts 147°
2026-05-07 09:07 1.17213 103.30888 14884 ft 371 kts 147°
2026-05-07 09:07 1.15029 103.32206 14408 ft 361 kts 147°
2026-05-07 09:08 1.12874 103.33488 14206 ft 358 kts 148°
2026-05-07 09:08 1.10775 103.34718 14050 ft 351 kts 148°
2026-05-07 09:08 1.08679 103.35938 13741 ft 347 kts 148°
2026-05-07 09:08 1.06590 103.37148 13319 ft 345 kts 148°
2026-05-07 09:09 1.04518 103.38347 12863 ft 344 kts 148°
2026-05-07 09:09 1.02450 103.39543 12456 ft 342 kts 148°
2026-05-07 09:09 1.00401 103.40730 12077 ft 337 kts 147°
2026-05-07 09:09 0.98649 103.42192 11537 ft 333 kts 125°
2026-05-07 09:10 0.97599 103.44196 11423 ft 319 kts 108°
2026-05-07 09:10 0.97175 103.46325 11342 ft 306 kts 95°
2026-05-07 09:10 0.97123 103.46997 11323 ft 302 kts 94°
2026-05-07 09:10 0.97055 103.48044 11274 ft 297 kts 94°
2026-05-07 09:11 0.96930 103.50071 11137 ft 288 kts 94°
2026-05-07 09:11 0.96793 103.52047 10933 ft 282 kts 94°
2026-05-07 09:11 0.96647 103.53970 10653 ft 280 kts 95°
2026-05-07 09:11 0.96495 103.55909 10341 ft 280 kts 95°
2026-05-07 09:12 0.96445 103.57846 10011 ft 279 kts 85°
2026-05-07 09:12 0.96693 103.59769 9690 ft 279 kts 82°
2026-05-07 09:12 0.96997 103.61610 9378 ft 277 kts 81°
2026-05-07 09:12 0.97301 103.63506 9054 ft 276 kts 82°
2026-05-07 09:13 0.97583 103.65395 8715 ft 275 kts 82°
2026-05-07 09:13 0.97853 103.67284 8404 ft 274 kts 83°
2026-05-07 09:13 0.98115 103.69147 8104 ft 273 kts 83°
2026-05-07 09:13 0.98398 103.71037 7824 ft 269 kts 78°
2026-05-07 09:14 0.99136 103.72725 7447 ft 270 kts 58°
2026-05-07 09:14 1.00180 103.74290 7171 ft 269 kts 57°
2026-05-07 09:14 1.01193 103.75828 6567 ft 265 kts 58°
2026-05-07 09:14 1.02241 103.77346 6005 ft 260 kts 47°
2026-05-07 09:15 1.03522 103.78472 5700 ft 250 kts 38°
2026-05-07 09:15 1.04846 103.79413 5281 ft 242 kts 36°
2026-05-07 09:15 1.06170 103.80332 4660 ft 242 kts 36°
2026-05-07 09:15 1.07550 103.81303 4017 ft 241 kts 36°
2026-05-07 09:16 1.08884 103.82257 3659 ft 228 kts 37°
2026-05-07 09:16 1.10136 103.83175 3511 ft 220 kts 41°
2026-05-07 09:16 1.11262 103.84202 3527 ft 222 kts 45°
2026-05-07 09:16 1.12360 103.85273 3511 ft 218 kts 45°
2026-05-07 09:17 1.13361 103.86344 3507 ft 215 kts 52°
2026-05-07 09:17 1.14257 103.87555 3527 ft 217 kts 54°
2026-05-07 09:17 1.15141 103.88790 3518 ft 218 kts 52°
2026-05-07 09:17 1.16294 103.89732 3518 ft 213 kts 29°
2026-05-07 09:18 1.17603 103.90413 3530 ft 216 kts 26°
2026-05-07 09:18 1.18973 103.91037 3281 ft 225 kts 24°
2026-05-07 09:18 1.20278 103.91593 3031 ft 225 kts 23°
2026-05-07 09:18 1.21755 103.92214 2737 ft 224 kts 23°
2026-05-07 09:19 1.22982 103.92730 2487 ft 221 kts 23°
2026-05-07 09:19 1.23081 103.92771 2451 ft 221 kts 22°
2026-05-07 09:19 1.24410 103.93301 2222 ft 215 kts 24°
2026-05-07 09:19 1.25772 103.93900 1943 ft 212 kts 24°
2026-05-07 09:20 1.27125 103.94477 1661 ft 209 kts 23°
2026-05-07 09:20 1.28448 103.95033 1363 ft 201 kts 23°
2026-05-07 09:20 1.29664 103.95545 1106 ft 180 kts 23°
2026-05-07 09:20 1.30781 103.96016 917 ft 168 kts 24°
2026-05-07 09:21 1.31791 103.96441 711 ft 158 kts 25°
2026-05-07 09:21 1.32756 103.96846 518 ft 148 kts 26°
2026-05-07 09:21 1.33711 103.97249 350 ft 152 kts 26°
2026-05-07 09:21 1.34688 103.97654 134 ft 152 kts 27°
2026-05-07 09:22 1.35639 103.98060 30 ft 139 kts 25°
2026-05-07 09:22 1.36429 103.98399 29 ft 108 kts 22°
2026-05-07 09:22 1.37014 103.98644 29 ft 73 kts 22°
2026-05-07 09:22 1.37315 103.98777 29 ft 29 kts 30°
2026-05-07 09:23 1.37442 103.98884 29 ft 18 kts 49°
2026-05-07 09:23 1.37487 103.98941 29 ft 9 kts 53°
2026-05-07 09:23 1.37474 103.98995 29 ft 9 kts 143°
2026-05-07 09:23 1.37412 103.99004 29 ft 9 kts 191°
2026-05-07 09:24 1.37351 103.98981 29 ft 9 kts 203°
2026-05-07 09:24 1.37290 103.98955 29 ft 9 kts 202°
2026-05-07 09:24 1.37229 103.98930 29 ft 9 kts 203°
2026-05-07 09:24 1.37164 103.98902 29 ft 11 kts 203°
2026-05-07 09:25 1.37090 103.98871 29 ft 13 kts 202°
2026-05-07 09:25 1.37002 103.98836 29 ft 14 kts 201°
2026-05-07 09:25 1.36913 103.98798 29 ft 14 kts 203°
2026-05-07 09:25 1.36824 103.98759 29 ft 14 kts 203°
2026-05-07 09:26 1.36734 103.98721 29 ft 14 kts 202°
2026-05-07 09:26 1.36644 103.98684 29 ft 14 kts 202°
2026-05-07 09:26 1.36553 103.98648 29 ft 14 kts 201°
2026-05-07 09:26 1.36461 103.98613 29 ft 14 kts 201°
2026-05-07 09:27 1.36415 103.98611 29 ft 3 kts 129°
2026-05-07 09:27 1.36404 103.98652 29 ft 8 kts 105°
2026-05-07 09:27 1.36383 103.98761 29 ft 8 kts 78°
2026-05-07 09:28 1.36428 103.98793 29 ft 9 kts 27°
2026-05-07 09:28 1.36439 103.98799 29 ft 0 kts 31°
2026-05-07 09:28 1.36442 103.98815 29 ft 4 kts 89°
2026-05-07 09:28 1.36438 103.98847 29 ft 5 kts 108°
2026-05-07 09:29 1.36435 103.98856 29 ft 0 kts 107°
2026-05-07 09:29 1.36435 103.98857 29 ft 0 kts 107°
2026-05-07 09:29 1.36434 103.98861 29 ft 1 kts 108°
2026-05-07 09:29 1.36430 103.98870 29 ft 2 kts 112°
2026-05-07 09:30 1.36424 103.98884 29 ft 2 kts 112°
2026-05-07 09:30 1.36422 103.98888 29 ft 0 kts 112°